Time,TemperatureF,DewpointF,PressureIn,WindDirection,WindDirectionDegrees,WindSpeedMPH,WindSpeedGustMPH,Humidity,HourlyPrecipIn,Conditions,Clouds,dailyrainin,SoftwareType,DateUTC
2013-02-15 00:01:00,9.3,-5.6,0.00,SE,125,0.0,0.0,50,0.00,,---,0.00,VWS V14.00,2013-02-15 07:01:00,
2013-02-15 00:02:00,9.3,-5.6,0.00,ESE,109,2.7,2.7,50,0.00,,---,0.00,VWS V14.00,2013-02-15 07:02:00,
2013-02-15 00:06:00,9.3,-5.6,0.00,SW,214,0.0,0.0,50,0.00,,---,0.00,VWS V14.00,2013-02-15 07:06:00,
2013-02-15 00:07:00,9.5,-5.4,0.00,SW,214,0.0,0.0,50,0.00,,---,0.00,VWS V14.00,2013-02-15 07:07:00,
2013-02-15 00:11:00,9.5,-5.4,0.00,SW,214,0.0,0.0,50,0.00,,---,0.00,VWS V14.00,2013-02-15 07:11:00,
2013-02-15 00:12:00,9.5,-5.4,0.00,SW,214,0.0,0.0,50,0.00,,---,0.00,VWS V14.00,2013-02-15 07:12:00,
2013-02-15 00:16:00,9.7,-5.2,0.00,SW,217,0.0,0.0,50,0.00,,---,0.00,VWS V14.00,2013-02-15 07:16:00,
2013-02-15 00:17:00,9.7,-5.2,0.00,SSW,212,0.0,0.0,50,0.00,,---,0.00,VWS V14.00,2013-02-15 07:17:00,
2013-02-15 00:18:00,9.7,-5.2,0.00,SSW,204,0.0,0.0,50,0.00,,---,0.00,VWS V14.00,2013-02-15 07:18:00,
2013-02-15 00:21:00,9.7,-5.2,0.00,SSW,204,0.0,0.0,50,0.00,,---,0.00,VWS V14.00,2013-02-15 07:21:00,
2013-02-15 00:22:00,9.7,-5.2,0.00,SSW,205,0.0,0.0,50,0.00,,---,0.00,VWS V14.00,2013-02-15 07:22:00,
2013-02-15 00:23:00,9.9,-5.1,0.00,SSW,205,0.0,0.0,50,0.00,,---,0.00,VWS V14.00,2013-02-15 07:23:00,
2013-02-15 00:26:00,10.0,-4.9,0.00,South,182,0.0,0.0,50,0.00,,---,0.00,VWS V14.00,2013-02-15 07:26:00,
2013-02-15 00:27:00,10.0,-4.9,0.00,South,182,0.0,0.0,50,0.00,,---,0.00,VWS V14.00,2013-02-15 07:27:00,
2013-02-15 00:28:00,10.0,-4.9,0.00,South,182,0.0,0.0,50,0.00,,---,0.00,VWS V14.00,2013-02-15 07:28:00,
2013-02-15 00:31:00,10.0,-4.9,0.00,South,182,0.0,0.0,50,0.00,,---,0.00,VWS V14.00,2013-02-15 07:31:00,
2013-02-15 00:32:00,10.2,-4.7,0.00,SW,227,0.0,0.0,50,0.00,,---,0.00,VWS V14.00,2013-02-15 07:32:00,
2013-02-15 00:33:00,10.2,-4.7,0.00,SW,227,0.0,0.0,50,0.00,,---,0.00,VWS V14.00,2013-02-15 07:33:00,
2013-02-15 00:36:00,10.4,-4.6,0.00,SW,227,0.0,0.0,50,0.00,,---,0.00,VWS V14.00,2013-02-15 07:36:00,
2013-02-15 00:37:00,10.4,-4.6,0.00,SW,227,0.0,0.0,50,0.00,,---,0.00,VWS V14.00,2013-02-15 07:37:00,
2013-02-15 00:38:00,10.4,-4.6,0.00,SW,227,0.0,0.0,50,0.00,,---,0.00,VWS V14.00,2013-02-15 07:38:00,
2013-02-15 00:41:00,10.6,-4.4,0.00,SW,229,0.0,0.0,50,0.00,,---,0.00,VWS V14.00,2013-02-15 07:41:00,
2013-02-15 00:42:00,10.8,-4.2,0.00,SW,229,0.0,0.0,50,0.00,,---,0.00,VWS V14.00,2013-02-15 07:42:00,
2013-02-15 00:43:00,10.8,-4.2,0.00,SW,229,0.0,0.0,50,0.00,,---,0.00,VWS V14.00,2013-02-15 07:43:00,
2013-02-15 00:46:00,10.9,-4.0,0.00,SW,230,0.0,0.0,50,0.00,,---,0.00,VWS V14.00,2013-02-15 07:46:00,
2013-02-15 00:47:00,10.9,-4.0,0.00,SW,229,0.0,0.0,50,0.00,,---,0.00,VWS V14.00,2013-02-15 07:47:00,
2013-02-15 00:48:00,10.9,-4.0,0.00,SW,229,0.0,0.0,50,0.00,,---,0.00,VWS V14.00,2013-02-15 07:48:00,
2013-02-15 00:51:00,10.9,-4.0,0.00,SSE,157,2.7,3.1,50,0.00,,---,0.00,VWS V14.00,2013-02-15 07:51:00,
2013-02-15 00:53:00,11.1,-3.9,0.00,SSE,157,0.0,2.2,50,0.00,,---,0.00,VWS V14.00,2013-02-15 07:53:00,
2013-02-15 00:54:00,11.1,-3.9,0.00,SSE,157,0.0,0.0,50,0.00,,---,0.00,VWS V14.00,2013-02-15 07:54:00,
2013-02-15 00:57:00,11.1,-3.9,0.00,SSE,157,0.0,0.0,50,0.00,,---,0.00,VWS V14.00,2013-02-15 07:57:00,
2013-02-15 00:58:00,11.1,-3.9,0.00,SSE,157,0.0,0.0,50,0.00,,---,0.00,VWS V14.00,2013-02-15 07:58:00,
2013-02-15 00:59:00,11.1,-3.9,0.00,SSE,157,0.0,0.0,50,0.00,,---,0.00,VWS V14.00,2013-02-15 07:59:00,
2013-02-15 01:02:00,11.1,-3.9,0.00,SSE,154,0.0,0.0,50,0.00,,---,0.00,VWS V14.00,2013-02-15 08:02:00,
2013-02-15 01:03:00,11.1,-3.9,0.00,SSE,157,0.0,0.0,50,0.00,,---,0.00,VWS V14.00,2013-02-15 08:03:00,
2013-02-15 01:04:00,11.1,-3.9,0.00,SSE,157,0.0,0.0,50,0.00,,---,0.00,VWS V14.00,2013-02-15 08:04:00,
2013-02-15 01:07:00,11.1,-3.9,0.00,SSE,153,0.0,0.0,50,0.00,,---,0.00,VWS V14.00,2013-02-15 08:07:00,
2013-02-15 01:08:00,11.1,-3.9,0.00,SSE,157,0.0,0.0,50,0.00,,---,0.00,VWS V14.00,2013-02-15 08:08:00,
2013-02-15 01:09:00,11.1,-3.9,0.00,SSE,157,0.0,0.0,50,0.00,,---,0.00,VWS V14.00,2013-02-15 08:09:00,
2013-02-15 01:12:00,11.1,-3.9,0.00,SSE,155,0.0,0.0,50,0.00,,---,0.00,VWS V14.00,2013-02-15 08:12:00,
2013-02-15 01:13:00,11.1,-3.9,0.00,ESE,117,3.1,3.1,50,0.00,,---,0.00,VWS V14.00,2013-02-15 08:13:00,
2013-02-15 01:14:00,11.1,-3.9,0.00,NE,55,5.4,5.4,50,0.00,,---,0.00,VWS V14.00,2013-02-15 08:14:00,
2013-02-15 01:17:00,11.3,-3.7,0.00,ESE,111,3.1,3.1,50,0.00,,---,0.00,VWS V14.00,2013-02-15 08:17:00,
2013-02-15 01:18:00,11.3,-3.7,0.00,East,99,2.7,2.7,50,0.00,,---,0.00,VWS V14.00,2013-02-15 08:18:00,
2013-02-15 01:19:00,11.3,-3.7,0.00,ESE,111,3.6,3.6,50,0.00,,---,0.00,VWS V14.00,2013-02-15 08:19:00,
2013-02-15 01:22:00,11.5,-3.5,0.00,ESE,103,2.7,2.7,50,0.00,,---,0.00,VWS V14.00,2013-02-15 08:22:00,
2013-02-15 01:23:00,11.5,-3.5,0.00,ESE,112,2.7,3.1,50,0.00,,---,0.00,VWS V14.00,2013-02-15 08:23:00,
2013-02-15 01:24:00,11.5,-3.5,0.00,ESE,110,2.2,3.1,50,0.00,,---,0.00,VWS V14.00,2013-02-15 08:24:00,
2013-02-15 01:27:00,11.5,-3.5,0.00,ESE,118,0.0,3.6,50,0.00,,---,0.00,VWS V14.00,2013-02-15 08:27:00,
2013-02-15 01:28:00,11.5,-3.5,0.00,ESE,115,0.0,0.0,50,0.00,,---,0.00,VWS V14.00,2013-02-15 08:28:00,
2013-02-15 01:29:00,11.7,-3.4,0.00,ESE,115,0.0,0.0,50,0.00,,---,0.00,VWS V14.00,2013-02-15 08:29:00,
2013-02-15 01:33:00,11.7,-3.4,0.00,ESE,116,0.0,0.0,50,0.00,,---,0.00,VWS V14.00,2013-02-15 08:33:00,
2013-02-15 01:34:00,11.7,-3.4,0.00,ESE,102,0.0,0.0,50,0.00,,---,0.00,VWS V14.00,2013-02-15 08:34:00,
2013-02-15 01:35:00,11.7,-3.4,0.00,East,81,3.1,4.5,50,0.00,,---,0.00,VWS V14.00,2013-02-15 08:35:00,
2013-02-15 01:38:00,11.7,-3.4,0.00,SE,143,0.0,0.0,50,0.00,,---,0.00,VWS V14.00,2013-02-15 08:38:00,
2013-02-15 01:39:00,11.7,-3.4,0.00,SE,145,0.0,0.0,50,0.00,,---,0.00,VWS V14.00,2013-02-15 08:39:00,
2013-02-15 01:40:00,11.7,-3.4,0.00,SSE,147,0.0,0.0,50,0.00,,---,0.00,VWS V14.00,2013-02-15 08:40:00,
2013-02-15 01:43:00,11.7,-3.4,0.00,SE,126,0.0,0.0,50,0.00,,---,0.00,VWS V14.00,2013-02-15 08:43:00,
2013-02-15 01:44:00,11.7,-3.4,0.00,SE,127,2.2,2.2,50,0.00,,---,0.00,VWS V14.00,2013-02-15 08:44:00,
2013-02-15 01:45:00,11.7,-3.4,0.00,SE,126,0.0,0.0,50,0.00,,---,0.00,VWS V14.00,2013-02-15 08:45:00,
2013-02-15 01:48:00,11.7,-3.4,0.00,ESE,112,3.1,3.6,50,0.00,,---,0.00,VWS V14.00,2013-02-15 08:48:00,
2013-02-15 01:49:00,11.7,-3.4,0.00,ESE,108,0.0,0.0,50,0.00,,---,0.00,VWS V14.00,2013-02-15 08:49:00,
2013-02-15 01:50:00,11.7,-3.4,0.00,ESE,111,0.0,2.2,50,0.00,,---,0.00,VWS V14.00,2013-02-15 08:50:00,
2013-02-15 01:53:00,11.8,-3.2,0.00,ESE,116,0.0,0.0,50,0.00,,---,0.00,VWS V14.00,2013-02-15 08:53:00,
2013-02-15 01:54:00,11.8,-3.2,0.00,ESE,116,0.0,0.0,50,0.00,,---,0.00,VWS V14.00,2013-02-15 08:54:00,
2013-02-15 01:55:00,11.8,-3.2,0.00,ESE,116,0.0,0.0,50,0.00,,---,0.00,VWS V14.00,2013-02-15 08:55:00,
2013-02-15 01:58:00,11.8,-3.2,0.00,East,96,3.1,3.1,50,0.00,,---,0.00,VWS V14.00,2013-02-15 08:58:00,
2013-02-15 01:59:00,11.8,-3.2,0.00,ESE,113,2.7,2.7,50,0.00,,---,0.00,VWS V14.00,2013-02-15 08:59:00,
2013-02-15 02:00:00,11.8,-3.2,0.00,ESE,119,2.7,3.6,50,0.00,,---,0.00,VWS V14.00,2013-02-15 09:00:00,
2013-02-15 02:03:00,11.7,-3.4,0.00,SE,146,0.0,0.0,50,0.00,,---,0.00,VWS V14.00,2013-02-15 09:03:00,
2013-02-15 02:04:00,11.7,-3.4,0.00,SE,146,0.0,0.0,50,0.00,,---,0.00,VWS V14.00,2013-02-15 09:04:00,
2013-02-15 02:05:00,11.7,-3.4,0.00,East,85,5.8,5.8,50,0.00,,---,0.00,VWS V14.00,2013-02-15 09:05:00,
2013-02-15 02:08:00,11.7,-3.4,0.00,ESE,106,3.1,3.1,50,0.00,,---,0.00,VWS V14.00,2013-02-15 09:08:00,
2013-02-15 02:09:00,11.7,-3.4,0.00,ESE,103,2.2,2.2,50,0.00,,---,0.00,VWS V14.00,2013-02-15 09:09:00,
2013-02-15 02:10:00,11.7,-3.4,0.00,ESE,113,2.7,3.6,50,0.00,,---,0.00,VWS V14.00,2013-02-15 09:10:00,
2013-02-15 02:13:00,11.7,-3.4,0.00,ESE,113,0.0,0.0,50,0.00,,---,0.00,VWS V14.00,2013-02-15 09:13:00,
2013-02-15 02:14:00,11.7,-3.4,0.00,East,84,4.5,4.5,50,0.00,,---,0.00,VWS V14.00,2013-02-15 09:14:00,
2013-02-15 02:15:00,11.7,-3.4,0.00,East,86,2.2,4.5,50,0.00,,---,0.00,VWS V14.00,2013-02-15 09:15:00,
2013-02-15 02:18:00,11.7,-3.4,0.00,ESE,114,3.6,3.6,50,0.00,,---,0.00,VWS V14.00,2013-02-15 09:18:00,
2013-02-15 02:19:00,11.7,-3.4,0.00,ESE,103,2.7,3.1,50,0.00,,---,0.00,VWS V14.00,2013-02-15 09:19:00,
2013-02-15 02:20:00,11.7,-3.4,0.00,ESE,103,2.2,3.1,50,0.00,,---,0.00,VWS V14.00,2013-02-15 09:20:00,
2013-02-15 02:21:00,11.7,-3.4,0.00,ESE,121,4.0,4.0,50,0.00,,---,0.00,VWS V14.00,2013-02-15 09:21:00,
2013-02-15 02:23:00,11.7,-3.4,0.00,SE,129,2.7,2.7,50,0.00,,---,0.00,VWS V14.00,2013-02-15 09:23:00,
2013-02-15 02:24:00,11.7,-3.4,0.00,ESE,111,0.0,2.7,50,0.00,,---,0.00,VWS V14.00,2013-02-15 09:24:00,
2013-02-15 02:25:00,11.7,-3.4,0.00,ESE,109,0.0,2.7,50,0.00,,---,0.00,VWS V14.00,2013-02-15 09:25:00,
2013-02-15 02:26:00,11.7,-3.4,0.00,ESE,109,0.0,0.0,50,0.00,,---,0.00,VWS V14.00,2013-02-15 09:26:00,
2013-02-15 02:28:00,11.7,-3.4,0.00,ESE,109,0.0,0.0,50,0.00,,---,0.00,VWS V14.00,2013-02-15 09:28:00,
2013-02-15 02:29:00,11.7,-3.4,0.00,ESE,109,0.0,0.0,50,0.00,,---,0.00,VWS V14.00,2013-02-15 09:29:00,
2013-02-15 02:30:00,11.7,-3.4,0.00,ESE,109,0.0,0.0,50,0.00,,---,0.00,VWS V14.00,2013-02-15 09:30:00,
2013-02-15 02:31:00,11.7,-3.4,0.00,ESE,116,0.0,0.0,50,0.00,,---,0.00,VWS V14.00,2013-02-15 09:31:00,
2013-02-15 02:33:00,11.7,-3.4,0.00,ESE,116,0.0,0.0,50,0.00,,---,0.00,VWS V14.00,2013-02-15 09:33:00,
2013-02-15 02:35:00,11.7,-3.4,0.00,ESE,111,0.0,0.0,50,0.00,,---,0.00,VWS V14.00,2013-02-15 09:35:00,
2013-02-15 02:36:00,11.7,-3.4,0.00,ESE,116,0.0,0.0,50,0.00,,---,0.00,VWS V14.00,2013-02-15 09:36:00,
2013-02-15 02:39:00,11.7,-3.4,0.00,ESE,116,0.0,0.0,50,0.00,,---,0.00,VWS V14.00,2013-02-15 09:39:00,
2013-02-15 02:40:00,11.7,-3.4,0.00,ESE,113,0.0,0.0,50,0.00,,---,0.00,VWS V14.00,2013-02-15 09:40:00,
2013-02-15 02:41:00,11.7,-3.4,0.00,East,98,0.0,3.6,50,0.00,,---,0.00,VWS V14.00,2013-02-15 09:41:00,
2013-02-15 02:44:00,11.7,-3.4,0.00,ENE,69,2.7,3.6,50,0.00,,---,0.00,VWS V14.00,2013-02-15 09:44:00,
2013-02-15 02:45:00,11.7,-3.4,0.00,ENE,70,2.2,4.0,50,0.00,,---,0.00,VWS V14.00,2013-02-15 09:45:00,
2013-02-15 02:46:00,11.7,-3.4,0.00,ESE,106,0.0,0.0,50,0.00,,---,0.00,VWS V14.00,2013-02-15 09:46:00,
2013-02-15 02:49:00,11.7,-3.4,0.00,ESE,103,0.0,0.0,50,0.00,,---,0.00,VWS V14.00,2013-02-15 09:49:00,
2013-02-15 02:50:00,11.7,-3.4,0.00,ESE,104,0.0,0.0,50,0.00,,---,0.00,VWS V14.00,2013-02-15 09:50:00,
2013-02-15 02:52:00,11.7,-3.4,0.00,ESE,106,0.0,0.0,50,0.00,,---,0.00,VWS V14.00,2013-02-15 09:52:00,
2013-02-15 02:54:00,11.7,-3.4,0.00,ESE,107,0.0,0.0,50,0.00,,---,0.00,VWS V14.00,2013-02-15 09:54:00,
2013-02-15 02:55:00,11.7,-3.4,0.00,ESE,107,0.0,0.0,50,0.00,,---,0.00,VWS V14.00,2013-02-15 09:55:00,
2013-02-15 02:57:00,11.7,-3.4,0.00,ESE,107,0.0,0.0,50,0.00,,---,0.00,VWS V14.00,2013-02-15 09:57:00,
2013-02-15 02:59:00,11.7,-3.4,0.00,ESE,107,0.0,0.0,50,0.00,,---,0.00,VWS V14.00,2013-02-15 09:59:00,
2013-02-15 03:00:00,11.7,-3.4,0.00,ESE,106,0.0,0.0,50,0.00,,---,0.00,VWS V14.00,2013-02-15 10:00:00,
2013-02-15 03:02:00,11.7,-3.4,0.00,ESE,105,0.0,0.0,50,0.00,,---,0.00,VWS V14.00,2013-02-15 10:02:00,
2013-02-15 03:04:00,11.7,-3.4,0.00,ESE,114,0.0,0.0,50,0.00,,---,0.00,VWS V14.00,2013-02-15 10:04:00,
2013-02-15 03:05:00,11.7,-3.4,0.00,South,172,2.2,2.2,50,0.00,,---,0.00,VWS V14.00,2013-02-15 10:05:00,
2013-02-15 03:07:00,11.7,-3.4,0.00,SE,127,2.2,3.6,50,0.00,,---,0.00,VWS V14.00,2013-02-15 10:07:00,
2013-02-15 03:09:00,11.8,-3.2,0.00,SE,142,0.0,0.0,50,0.00,,---,0.00,VWS V14.00,2013-02-15 10:09:00,
2013-02-15 03:10:00,11.8,-3.2,0.00,West,263,3.6,3.6,50,0.00,,---,0.00,VWS V14.00,2013-02-15 10:10:00,
2013-02-15 03:11:00,11.8,-3.2,0.00,SW,219,0.0,3.6,50,0.00,,---,0.00,VWS V14.00,2013-02-15 10:11:00,
2013-02-15 03:12:00,11.8,-3.2,0.00,SSW,205,0.0,0.0,50,0.00,,---,0.00,VWS V14.00,2013-02-15 10:12:00,
2013-02-15 03:14:00,11.8,-3.2,0.00,SSW,206,0.0,0.0,50,0.00,,---,0.00,VWS V14.00,2013-02-15 10:14:00,
2013-02-15 03:15:00,11.8,-3.2,0.00,SSW,206,0.0,0.0,50,0.00,,---,0.00,VWS V14.00,2013-02-15 10:15:00,
2013-02-15 03:16:00,11.8,-3.2,0.00,SSW,202,0.0,0.0,50,0.00,,---,0.00,VWS V14.00,2013-02-15 10:16:00,
2013-02-15 03:17:00,11.8,-3.2,0.00,SSW,203,0.0,0.0,50,0.00,,---,0.00,VWS V14.00,2013-02-15 10:17:00,
2013-02-15 03:19:00,11.8,-3.2,0.00,SSW,205,0.0,0.0,50,0.00,,---,0.00,VWS V14.00,2013-02-15 10:19:00,
2013-02-15 03:20:00,11.8,-3.2,0.00,SSW,206,0.0,0.0,50,0.00,,---,0.00,VWS V14.00,2013-02-15 10:20:00,
2013-02-15 03:21:00,11.8,-3.2,0.00,SSW,204,0.0,0.0,50,0.00,,---,0.00,VWS V14.00,2013-02-15 10:21:00,
2013-02-15 03:22:00,11.8,-3.2,0.00,SSW,206,0.0,0.0,50,0.00,,---,0.00,VWS V14.00,2013-02-15 10:22:00,
2013-02-15 03:25:00,11.8,-3.2,0.00,SSW,206,0.0,0.0,50,0.00,,---,0.00,VWS V14.00,2013-02-15 10:25:00,
2013-02-15 03:26:00,11.8,-3.2,0.00,SSW,205,0.0,0.0,50,0.00,,---,0.00,VWS V14.00,2013-02-15 10:26:00,
2013-02-15 03:27:00,12.0,-3.0,0.00,SW,227,0.0,0.0,50,0.00,,---,0.00,VWS V14.00,2013-02-15 10:27:00,
2013-02-15 03:30:00,12.0,-3.0,0.00,West,272,0.0,2.2,50,0.00,,---,0.00,VWS V14.00,2013-02-15 10:30:00,
2013-02-15 03:31:00,12.0,-3.0,0.00,West,271,0.0,0.0,50,0.00,,---,0.00,VWS V14.00,2013-02-15 10:31:00,
2013-02-15 03:32:00,12.0,-3.0,0.00,WSW,246,3.6,3.6,50,0.00,,---,0.00,VWS V14.00,2013-02-15 10:32:00,
2013-02-15 03:35:00,12.0,-3.0,0.00,WSW,256,2.2,2.2,50,0.00,,---,0.00,VWS V14.00,2013-02-15 10:35:00,
2013-02-15 03:36:00,12.0,-3.0,0.00,WSW,257,0.0,0.0,50,0.00,,---,0.00,VWS V14.00,2013-02-15 10:36:00,
2013-02-15 03:38:00,12.0,-3.0,0.00,WSW,253,0.0,0.0,50,0.00,,---,0.00,VWS V14.00,2013-02-15 10:38:00,
2013-02-15 03:40:00,12.0,-3.0,0.00,West,271,0.0,0.0,50,0.00,,---,0.00,VWS V14.00,2013-02-15 10:40:00,
2013-02-15 03:41:00,12.0,-3.0,0.00,West,271,0.0,0.0,50,0.00,,---,0.00,VWS V14.00,2013-02-15 10:41:00,
2013-02-15 03:43:00,12.0,-3.0,0.00,West,271,0.0,0.0,50,0.00,,---,0.00,VWS V14.00,2013-02-15 10:43:00,
2013-02-15 03:45:00,12.0,-3.0,0.00,West,271,0.0,0.0,50,0.00,,---,0.00,VWS V14.00,2013-02-15 10:45:00,
2013-02-15 03:46:00,12.0,-3.0,0.00,West,271,0.0,0.0,50,0.00,,---,0.00,VWS V14.00,2013-02-15 10:46:00,
2013-02-15 03:48:00,12.0,-3.0,0.00,West,271,0.0,0.0,50,0.00,,---,0.00,VWS V14.00,2013-02-15 10:48:00,
2013-02-15 03:50:00,12.0,-3.0,0.00,West,271,0.0,0.0,50,0.00,,---,0.00,VWS V14.00,2013-02-15 10:50:00,
2013-02-15 03:51:00,12.0,-3.0,0.00,West,271,0.0,0.0,50,0.00,,---,0.00,VWS V14.00,2013-02-15 10:51:00,
2013-02-15 03:53:00,12.0,-3.0,0.00,West,271,0.0,0.0,50,0.00,,---,0.00,VWS V14.00,2013-02-15 10:53:00,
2013-02-15 03:55:00,12.0,-3.0,0.00,West,271,0.0,0.0,50,0.00,,---,0.00,VWS V14.00,2013-02-15 10:55:00,
2013-02-15 03:56:00,12.0,-3.0,0.00,West,271,0.0,0.0,50,0.00,,---,0.00,VWS V14.00,2013-02-15 10:56:00,
2013-02-15 03:58:00,12.0,-3.0,0.00,West,271,0.0,0.0,50,0.00,,---,0.00,VWS V14.00,2013-02-15 10:58:00,
2013-02-15 04:00:00,12.0,-3.0,0.00,West,271,0.0,0.0,50,0.00,,---,0.00,VWS V14.00,2013-02-15 11:00:00,
2013-02-15 04:01:00,12.0,-3.0,0.00,West,271,0.0,0.0,50,0.00,,---,0.00,VWS V14.00,2013-02-15 11:01:00,
2013-02-15 04:03:00,12.0,-3.0,0.00,West,271,0.0,0.0,50,0.00,,---,0.00,VWS V14.00,2013-02-15 11:03:00,
2013-02-15 04:05:00,12.0,-3.0,0.00,West,271,0.0,0.0,50,0.00,,---,0.00,VWS V14.00,2013-02-15 11:05:00,
2013-02-15 04:06:00,12.0,-3.0,0.00,West,271,0.0,0.0,50,0.00,,---,0.00,VWS V14.00,2013-02-15 11:06:00,
2013-02-15 04:08:00,12.0,-3.0,0.00,NW,306,2.2,3.1,50,0.00,,---,0.00,VWS V14.00,2013-02-15 11:08:00,
2013-02-15 04:10:00,12.0,-3.0,0.00,NW,304,0.0,0.0,50,0.00,,---,0.00,VWS V14.00,2013-02-15 11:10:00,
2013-02-15 04:12:00,12.0,-3.0,0.00,NW,304,0.0,0.0,50,0.00,,---,0.00,VWS V14.00,2013-02-15 11:12:00,
2013-02-15 04:13:00,12.0,-3.0,0.00,NW,304,0.0,0.0,50,0.00,,---,0.00,VWS V14.00,2013-02-15 11:13:00,
2013-02-15 04:16:00,12.0,-3.0,0.00,NW,304,0.0,0.0,50,0.00,,---,0.00,VWS V14.00,2013-02-15 11:16:00,
2013-02-15 04:17:00,12.0,-3.0,0.00,NW,304,0.0,0.0,50,0.00,,---,0.00,VWS V14.00,2013-02-15 11:17:00,
2013-02-15 04:18:00,12.0,-3.0,0.00,NW,304,0.0,0.0,50,0.00,,---,0.00,VWS V14.00,2013-02-15 11:18:00,
2013-02-15 04:21:00,12.0,-3.0,0.00,NW,304,0.0,0.0,50,0.00,,---,0.00,VWS V14.00,2013-02-15 11:21:00,
2013-02-15 04:22:00,12.0,-3.0,0.00,NW,304,0.0,0.0,50,0.00,,---,0.00,VWS V14.00,2013-02-15 11:22:00,
2013-02-15 04:23:00,12.0,-3.0,0.00,WNW,302,0.0,0.0,50,0.00,,---,0.00,VWS V14.00,2013-02-15 11:23:00,
2013-02-15 04:26:00,11.8,-3.2,0.00,NW,304,0.0,0.0,50,0.00,,---,0.00,VWS V14.00,2013-02-15 11:26:00,
2013-02-15 04:27:00,11.8,-3.2,0.00,WNW,293,0.0,0.0,50,0.00,,---,0.00,VWS V14.00,2013-02-15 11:27:00,
2013-02-15 04:29:00,11.8,-3.2,0.00,NW,304,0.0,0.0,50,0.00,,---,0.00,VWS V14.00,2013-02-15 11:29:00,
2013-02-15 04:31:00,11.8,-3.2,0.00,NW,304,0.0,0.0,50,0.00,,---,0.00,VWS V14.00,2013-02-15 11:31:00,
2013-02-15 04:32:00,11.8,-3.2,0.00,WNW,293,0.0,0.0,50,0.00,,---,0.00,VWS V14.00,2013-02-15 11:32:00,
2013-02-15 04:34:00,11.8,-3.2,0.00,WNW,295,0.0,0.0,50,0.00,,---,0.00,VWS V14.00,2013-02-15 11:34:00,
2013-02-15 04:36:00,11.8,-3.2,0.00,NW,304,0.0,0.0,50,0.00,,---,0.00,VWS V14.00,2013-02-15 11:36:00,
2013-02-15 04:37:00,11.8,-3.2,0.00,WNW,302,0.0,0.0,50,0.00,,---,0.00,VWS V14.00,2013-02-15 11:37:00,
2013-02-15 04:39:00,11.8,-3.2,0.00,WNW,303,0.0,0.0,50,0.00,,---,0.00,VWS V14.00,2013-02-15 11:39:00,
2013-02-15 04:41:00,11.8,-3.2,0.00,NW,304,0.0,0.0,50,0.00,,---,0.00,VWS V14.00,2013-02-15 11:41:00,
2013-02-15 04:42:00,11.8,-3.2,0.00,WNW,299,0.0,0.0,50,0.00,,---,0.00,VWS V14.00,2013-02-15 11:42:00,
2013-02-15 04:44:00,11.8,-3.2,0.00,WNW,303,0.0,0.0,50,0.00,,---,0.00,VWS V14.00,2013-02-15 11:44:00,
2013-02-15 04:47:00,11.8,-3.2,0.00,NW,304,0.0,0.0,50,0.00,,---,0.00,VWS V14.00,2013-02-15 11:47:00,
2013-02-15 04:49:00,11.7,-3.4,0.00,WNW,303,0.0,0.0,50,0.00,,---,0.00,VWS V14.00,2013-02-15 11:49:00,
2013-02-15 04:52:00,11.7,-3.4,0.00,WNW,297,0.0,0.0,50,0.00,,---,0.00,VWS V14.00,2013-02-15 11:52:00,
2013-02-15 04:53:00,11.7,-3.4,0.00,WNW,302,0.0,0.0,50,0.00,,---,0.00,VWS V14.00,2013-02-15 11:53:00,
2013-02-15 04:54:00,11.7,-3.4,0.00,WNW,293,0.0,0.0,50,0.00,,---,0.00,VWS V14.00,2013-02-15 11:54:00,
2013-02-15 04:57:00,11.5,-3.5,0.00,WNW,286,2.2,2.2,50,0.00,,---,0.00,VWS V14.00,2013-02-15 11:57:00,
2013-02-15 04:58:00,11.3,-3.7,0.00,WNW,285,0.0,2.2,50,0.00,,---,0.00,VWS V14.00,2013-02-15 11:58:00,
2013-02-15 04:59:00,11.3,-3.7,0.00,WNW,288,0.0,0.0,50,0.00,,---,0.00,VWS V14.00,2013-02-15 11:59:00,
2013-02-15 05:02:00,11.3,-3.7,0.00,WNW,288,0.0,0.0,50,0.00,,---,0.00,VWS V14.00,2013-02-15 12:02:00,
2013-02-15 05:03:00,11.3,-3.7,0.00,WNW,288,0.0,0.0,50,0.00,,---,0.00,VWS V14.00,2013-02-15 12:03:00,
2013-02-15 05:04:00,11.3,-3.7,0.00,WNW,287,0.0,0.0,50,0.00,,---,0.00,VWS V14.00,2013-02-15 12:04:00,
2013-02-15 05:07:00,11.3,-3.7,0.00,WNW,288,3.1,3.1,50,0.00,,---,0.00,VWS V14.00,2013-02-15 12:07:00,
2013-02-15 05:08:00,11.1,-3.9,0.00,WNW,289,2.7,3.1,50,0.00,,---,0.00,VWS V14.00,2013-02-15 12:08:00,
2013-02-15 05:09:00,11.1,-3.9,0.00,WNW,288,0.0,0.0,50,0.00,,---,0.00,VWS V14.00,2013-02-15 12:09:00,
2013-02-15 05:12:00,11.1,-3.9,0.00,WNW,289,0.0,0.0,50,0.00,,---,0.00,VWS V14.00,2013-02-15 12:12:00,
2013-02-15 05:13:00,11.1,-3.9,0.00,WNW,288,0.0,0.0,50,0.00,,---,0.00,VWS V14.00,2013-02-15 12:13:00,
2013-02-15 05:14:00,10.9,-4.0,0.00,WNW,288,0.0,0.0,50,0.00,,---,0.00,VWS V14.00,2013-02-15 12:14:00,
2013-02-15 05:17:00,10.9,-4.0,0.00,WNW,288,0.0,0.0,50,0.00,,---,0.00,VWS V14.00,2013-02-15 12:17:00,
2013-02-15 05:18:00,10.9,-4.0,0.00,WNW,288,0.0,0.0,50,0.00,,---,0.00,VWS V14.00,2013-02-15 12:18:00,
2013-02-15 05:20:00,10.9,-4.0,0.00,WNW,288,0.0,0.0,50,0.00,,---,0.00,VWS V14.00,2013-02-15 12:20:00,
2013-02-15 05:22:00,10.9,-4.0,0.00,WNW,288,0.0,0.0,50,0.00,,---,0.00,VWS V14.00,2013-02-15 12:22:00,
2013-02-15 05:23:00,10.8,-4.2,0.00,WNW,288,0.0,0.0,50,0.00,,---,0.00,VWS V14.00,2013-02-15 12:23:00,
2013-02-15 05:25:00,10.8,-4.2,0.00,WNW,288,0.0,0.0,50,0.00,,---,0.00,VWS V14.00,2013-02-15 12:25:00,
2013-02-15 05:27:00,10.8,-4.2,0.00,WNW,288,0.0,0.0,50,0.00,,---,0.00,VWS V14.00,2013-02-15 12:27:00,
2013-02-15 05:28:00,10.8,-4.2,0.00,WNW,288,0.0,0.0,50,0.00,,---,0.00,VWS V14.00,2013-02-15 12:28:00,
2013-02-15 05:30:00,10.8,-4.2,0.00,WNW,288,0.0,0.0,50,0.00,,---,0.00,VWS V14.00,2013-02-15 12:30:00,
2013-02-15 05:32:00,10.6,-4.4,0.00,SSE,148,4.0,4.0,50,0.00,,---,0.00,VWS V14.00,2013-02-15 12:32:00,
2013-02-15 05:33:00,10.4,-4.6,0.00,SSE,148,2.2,2.2,50,0.00,,---,0.00,VWS V14.00,2013-02-15 12:33:00,
2013-02-15 05:35:00,10.4,-4.6,0.00,SSE,148,0.0,0.0,50,0.00,,---,0.00,VWS V14.00,2013-02-15 12:35:00,
2013-02-15 05:37:00,10.4,-4.6,0.00,SSE,148,0.0,0.0,50,0.00,,---,0.00,VWS V14.00,2013-02-15 12:37:00,
2013-02-15 05:38:00,10.4,-4.6,0.00,SSE,148,0.0,0.0,50,0.00,,---,0.00,VWS V14.00,2013-02-15 12:38:00,
2013-02-15 05:40:00,10.4,-4.6,0.00,SE,142,0.0,0.0,50,0.00,,---,0.00,VWS V14.00,2013-02-15 12:40:00,
2013-02-15 05:42:00,10.2,-4.7,0.00,SSE,148,0.0,0.0,50,0.00,,---,0.00,VWS V14.00,2013-02-15 12:42:00,
2013-02-15 05:43:00,10.2,-4.7,0.00,SSE,148,0.0,0.0,50,0.00,,---,0.00,VWS V14.00,2013-02-15 12:43:00,
2013-02-15 05:45:00,10.2,-4.7,0.00,SE,145,0.0,0.0,50,0.00,,---,0.00,VWS V14.00,2013-02-15 12:45:00,
2013-02-15 05:47:00,10.2,-4.7,0.00,West,273,0.0,0.0,50,0.00,,---,0.00,VWS V14.00,2013-02-15 12:47:00,
2013-02-15 05:48:00,10.2,-4.7,0.00,West,278,0.0,0.0,50,0.00,,---,0.00,VWS V14.00,2013-02-15 12:48:00,
2013-02-15 05:49:00,10.2,-4.7,0.00,West,278,0.0,0.0,50,0.00,,---,0.00,VWS V14.00,2013-02-15 12:49:00,
2013-02-15 05:50:00,10.2,-4.7,0.00,West,278,0.0,0.0,50,0.00,,---,0.00,VWS V14.00,2013-02-15 12:50:00,
2013-02-15 05:52:00,10.0,-4.9,0.00,West,278,0.0,0.0,50,0.00,,---,0.00,VWS V14.00,2013-02-15 12:52:00,
2013-02-15 05:53:00,10.0,-4.9,0.00,West,273,0.0,0.0,50,0.00,,---,0.00,VWS V14.00,2013-02-15 12:53:00,
2013-02-15 05:54:00,10.0,-4.9,0.00,West,279,0.0,0.0,50,0.00,,---,0.00,VWS V14.00,2013-02-15 12:54:00,
2013-02-15 05:55:00,10.0,-4.9,0.00,West,269,0.0,0.0,50,0.00,,---,0.00,VWS V14.00,2013-02-15 12:55:00,
2013-02-15 05:57:00,10.0,-4.9,0.00,West,279,0.0,0.0,50,0.00,,---,0.00,VWS V14.00,2013-02-15 12:57:00,
2013-02-15 05:59:00,10.0,-4.9,0.00,West,279,0.0,0.0,50,0.00,,---,0.00,VWS V14.00,2013-02-15 12:59:00,
2013-02-15 06:00:00,10.0,-4.9,0.00,West,278,0.0,0.0,50,0.00,,---,0.00,VWS V14.00,2013-02-15 13:00:00,
2013-02-15 06:02:00,10.0,-4.9,0.00,West,279,0.0,0.0,50,0.00,,---,0.00,VWS V14.00,2013-02-15 13:02:00,
2013-02-15 06:04:00,9.9,-5.1,0.00,West,279,0.0,0.0,50,0.00,,---,0.00,VWS V14.00,2013-02-15 13:04:00,
2013-02-15 06:05:00,9.9,-5.1,0.00,West,279,0.0,0.0,50,0.00,,---,0.00,VWS V14.00,2013-02-15 13:05:00,
2013-02-15 06:07:00,9.7,-5.2,0.00,NW,315,3.6,5.4,50,0.00,,---,0.00,VWS V14.00,2013-02-15 13:07:00,
2013-02-15 06:09:00,9.7,-5.2,0.00,NW,314,0.0,0.0,50,0.00,,---,0.00,VWS V14.00,2013-02-15 13:09:00,
2013-02-15 06:10:00,9.7,-5.2,0.00,NW,306,0.0,0.0,50,0.00,,---,0.00,VWS V14.00,2013-02-15 13:10:00,
2013-02-15 06:12:00,9.7,-5.2,0.00,NW,314,0.0,0.0,50,0.00,,---,0.00,VWS V14.00,2013-02-15 13:12:00,
2013-02-15 06:14:00,9.7,-5.2,0.00,NW,314,0.0,0.0,50,0.00,,---,0.00,VWS V14.00,2013-02-15 13:14:00,
2013-02-15 06:15:00,9.7,-5.2,0.00,NW,314,0.0,0.0,50,0.00,,---,0.00,VWS V14.00,2013-02-15 13:15:00,
2013-02-15 06:18:00,9.7,-5.2,0.00,NW,306,0.0,0.0,50,0.00,,---,0.00,VWS V14.00,2013-02-15 13:18:00,
2013-02-15 06:19:00,9.7,-5.2,0.00,NW,314,0.0,2.2,50,0.00,,---,0.00,VWS V14.00,2013-02-15 13:19:00,
2013-02-15 06:20:00,9.7,-5.2,0.00,NW,313,0.0,2.2,50,0.00,,---,0.00,VWS V14.00,2013-02-15 13:20:00,
2013-02-15 06:21:00,9.7,-5.2,0.00,NW,314,0.0,0.0,50,0.00,,---,0.00,VWS V14.00,2013-02-15 13:21:00,
2013-02-15 06:23:00,9.7,-5.2,0.00,NW,314,0.0,0.0,50,0.00,,---,0.00,VWS V14.00,2013-02-15 13:23:00,
2013-02-15 06:24:00,9.7,-5.2,0.00,NW,313,0.0,0.0,50,0.00,,---,0.00,VWS V14.00,2013-02-15 13:24:00,
2013-02-15 06:25:00,9.5,-5.4,0.00,NW,314,0.0,0.0,50,0.00,,---,0.00,VWS V14.00,2013-02-15 13:25:00,
2013-02-15 06:26:00,9.5,-5.4,0.00,WNW,301,0.0,0.0,50,0.00,,---,0.00,VWS V14.00,2013-02-15 13:26:00,
2013-02-15 06:28:00,9.5,-5.4,0.00,NW,314,2.2,2.2,50,0.00,,---,0.00,VWS V14.00,2013-02-15 13:28:00,
2013-02-15 06:29:00,9.5,-5.4,0.00,NW,314,0.0,0.0,50,0.00,,---,0.00,VWS V14.00,2013-02-15 13:29:00,
2013-02-15 06:30:00,9.5,-5.4,0.00,NW,314,0.0,0.0,50,0.00,,---,0.00,VWS V14.00,2013-02-15 13:30:00,
2013-02-15 06:31:00,9.5,-5.4,0.00,NW,314,0.0,0.0,50,0.00,,---,0.00,VWS V14.00,2013-02-15 13:31:00,
2013-02-15 06:33:00,9.5,-5.4,0.00,NW,313,0.0,0.0,50,0.00,,---,0.00,VWS V14.00,2013-02-15 13:33:00,
2013-02-15 06:34:00,9.5,-5.4,0.00,NW,314,0.0,0.0,50,0.00,,---,0.00,VWS V14.00,2013-02-15 13:34:00,
2013-02-15 06:35:00,9.5,-5.4,0.00,NW,313,0.0,0.0,50,0.00,,---,0.00,VWS V14.00,2013-02-15 13:35:00,
2013-02-15 06:36:00,9.5,-5.4,0.00,NW,310,0.0,0.0,50,0.00,,---,0.00,VWS V14.00,2013-02-15 13:36:00,
2013-02-15 06:38:00,9.5,-5.4,0.00,NW,314,0.0,0.0,50,0.00,,---,0.00,VWS V14.00,2013-02-15 13:38:00,
2013-02-15 06:39:00,9.5,-5.4,0.00,NW,314,0.0,0.0,50,0.00,,---,0.00,VWS V14.00,2013-02-15 13:39:00,
2013-02-15 06:40:00,9.5,-5.4,0.00,NW,314,0.0,0.0,50,0.00,,---,0.00,VWS V14.00,2013-02-15 13:40:00,
2013-02-15 06:41:00,9.3,-5.6,0.00,NW,312,0.0,0.0,50,0.00,,---,0.00,VWS V14.00,2013-02-15 13:41:00,
2013-02-15 06:43:00,9.3,-5.6,0.00,NW,313,0.0,0.0,50,0.00,,---,0.00,VWS V14.00,2013-02-15 13:43:00,
2013-02-15 06:45:00,9.3,-5.6,0.00,NW,313,0.0,0.0,50,0.00,,---,0.00,VWS V14.00,2013-02-15 13:45:00,
2013-02-15 06:46:00,9.3,-5.6,0.00,NW,312,0.0,0.0,50,0.00,,---,0.00,VWS V14.00,2013-02-15 13:46:00,
2013-02-15 06:48:00,9.3,-5.6,0.00,NW,314,0.0,0.0,50,0.00,,---,0.00,VWS V14.00,2013-02-15 13:48:00,
2013-02-15 06:50:00,9.3,-5.6,0.00,NW,314,0.0,0.0,50,0.00,,---,0.00,VWS V14.00,2013-02-15 13:50:00,
2013-02-15 06:51:00,9.3,-5.6,0.00,East,95,2.2,3.6,50,0.00,,---,0.00,VWS V14.00,2013-02-15 13:51:00,
2013-02-15 06:53:00,9.1,-5.7,0.00,East,95,2.7,2.7,50,0.00,,---,0.00,VWS V14.00,2013-02-15 13:53:00,
2013-02-15 06:55:00,9.1,-5.7,0.00,East,94,0.0,3.1,50,0.00,,---,0.00,VWS V14.00,2013-02-15 13:55:00,
2013-02-15 06:56:00,9.1,-5.7,0.00,East,94,0.0,0.0,50,0.00,,---,0.00,VWS V14.00,2013-02-15 13:56:00,
2013-02-15 06:59:00,9.1,-5.7,0.00,East,94,0.0,0.0,50,0.00,,---,0.00,VWS V14.00,2013-02-15 13:59:00,
2013-02-15 07:00:00,9.1,-5.7,0.00,East,94,0.0,0.0,50,0.00,,---,0.00,VWS V14.00,2013-02-15 14:00:00,
2013-02-15 07:01:00,9.1,-5.7,0.00,East,94,0.0,0.0,50,0.00,,---,0.00,VWS V14.00,2013-02-15 14:01:00,
2013-02-15 07:04:00,9.1,-5.7,0.00,NW,307,3.1,3.1,50,0.00,,---,0.00,VWS V14.00,2013-02-15 14:04:00,
2013-02-15 07:05:00,9.1,-5.7,0.00,SSW,201,3.6,3.6,50,0.00,,---,0.00,VWS V14.00,2013-02-15 14:05:00,
2013-02-15 07:06:00,9.1,-5.7,0.00,SSW,201,0.0,0.0,50,0.00,,---,0.00,VWS V14.00,2013-02-15 14:06:00,
2013-02-15 07:07:00,9.1,-5.7,0.00,SSW,201,0.0,0.0,50,0.00,,---,0.00,VWS V14.00,2013-02-15 14:07:00,
2013-02-15 07:09:00,9.1,-5.7,0.00,SSW,202,0.0,0.0,50,0.00,,---,0.00,VWS V14.00,2013-02-15 14:09:00,
2013-02-15 07:10:00,9.1,-5.7,0.00,SSW,207,0.0,0.0,50,0.00,,---,0.00,VWS V14.00,2013-02-15 14:10:00,
2013-02-15 07:11:00,9.1,-5.7,0.00,SSW,206,0.0,0.0,50,0.00,,---,0.00,VWS V14.00,2013-02-15 14:11:00,
2013-02-15 07:12:00,9.1,-5.7,0.00,SSW,206,0.0,0.0,50,0.00,,---,0.00,VWS V14.00,2013-02-15 14:12:00,
2013-02-15 07:14:00,9.1,-5.7,0.00,SSW,206,0.0,0.0,50,0.00,,---,0.00,VWS V14.00,2013-02-15 14:14:00,
2013-02-15 07:15:00,9.1,-5.7,0.00,SSW,206,0.0,0.0,50,0.00,,---,0.00,VWS V14.00,2013-02-15 14:15:00,
2013-02-15 07:16:00,9.1,-5.7,0.00,West,274,0.0,0.0,50,0.00,,---,0.00,VWS V14.00,2013-02-15 14:16:00,
2013-02-15 07:17:00,9.1,-5.7,0.00,West,274,0.0,0.0,50,0.00,,---,0.00,VWS V14.00,2013-02-15 14:17:00,
2013-02-15 07:19:00,9.1,-5.7,0.00,West,280,0.0,0.0,50,0.00,,---,0.00,VWS V14.00,2013-02-15 14:19:00,
2013-02-15 07:20:00,9.1,-5.7,0.00,West,280,0.0,0.0,50,0.00,,---,0.00,VWS V14.00,2013-02-15 14:20:00,
2013-02-15 07:21:00,9.1,-5.7,0.00,West,280,0.0,0.0,50,0.00,,---,0.00,VWS V14.00,2013-02-15 14:21:00,
2013-02-15 07:22:00,9.1,-5.7,0.00,WNW,287,2.2,2.7,50,0.00,,---,0.00,VWS V14.00,2013-02-15 14:22:00,
2013-02-15 07:24:00,9.1,-5.7,0.00,NW,312,4.0,4.0,50,0.00,,---,0.00,VWS V14.00,2013-02-15 14:24:00,
2013-02-15 07:25:00,9.1,-5.7,0.00,NW,309,0.0,0.0,50,0.00,,---,0.00,VWS V14.00,2013-02-15 14:25:00,
2013-02-15 07:26:00,9.3,-5.6,0.00,NW,310,3.1,3.1,50,0.00,,---,0.00,VWS V14.00,2013-02-15 14:26:00,
2013-02-15 07:27:00,9.3,-5.6,0.00,WNW,284,0.0,2.7,50,0.00,,---,0.00,VWS V14.00,2013-02-15 14:27:00,
2013-02-15 07:29:00,9.5,-5.4,0.00,WNW,284,0.0,0.0,50,0.00,,---,0.00,VWS V14.00,2013-02-15 14:29:00,
2013-02-15 07:30:00,9.5,-5.4,0.00,WNW,284,0.0,0.0,50,0.00,,---,0.00,VWS V14.00,2013-02-15 14:30:00,
2013-02-15 07:31:00,9.5,-5.4,0.00,WNW,284,0.0,0.0,50,0.00,,---,0.00,VWS V14.00,2013-02-15 14:31:00,
2013-02-15 07:32:00,9.7,-5.2,0.00,WNW,285,0.0,0.0,50,0.00,,---,0.00,VWS V14.00,2013-02-15 14:32:00,
2013-02-15 07:34:00,9.7,-5.2,0.00,WNW,286,0.0,0.0,50,0.00,,---,0.00,VWS V14.00,2013-02-15 14:34:00,
2013-02-15 07:35:00,9.7,-5.2,0.00,WNW,285,0.0,0.0,50,0.00,,---,0.00,VWS V14.00,2013-02-15 14:35:00,
2013-02-15 07:36:00,9.7,-5.2,0.00,WNW,283,0.0,0.0,50,0.00,,---,0.00,VWS V14.00,2013-02-15 14:36:00,
2013-02-15 07:38:00,9.7,-5.2,0.00,WNW,285,0.0,0.0,50,0.00,,---,0.00,VWS V14.00,2013-02-15 14:38:00,
2013-02-15 07:39:00,9.7,-5.2,0.00,WNW,285,0.0,0.0,50,0.00,,---,0.00,VWS V14.00,2013-02-15 14:39:00,
2013-02-15 07:40:00,9.7,-5.2,0.00,WNW,284,0.0,0.0,50,0.00,,---,0.00,VWS V14.00,2013-02-15 14:40:00,
2013-02-15 07:41:00,9.9,-5.1,0.00,NNW,330,2.7,2.7,50,0.00,,---,0.00,VWS V14.00,2013-02-15 14:41:00,
2013-02-15 07:43:00,9.9,-5.1,0.00,North,1,4.0,4.0,50,0.00,,---,0.00,VWS V14.00,2013-02-15 14:43:00,
2013-02-15 07:44:00,10.0,-4.9,0.00,NNW,344,0.0,0.0,50,0.00,,---,0.00,VWS V14.00,2013-02-15 14:44:00,
2013-02-15 07:45:00,10.0,-4.9,0.00,NW,325,0.0,2.7,50,0.00,,---,0.00,VWS V14.00,2013-02-15 14:45:00,
2013-02-15 07:46:00,10.0,-4.9,0.00,NW,313,0.0,0.0,50,0.00,,---,0.00,VWS V14.00,2013-02-15 14:46:00,
2013-02-15 07:48:00,10.0,-4.9,0.00,NW,325,0.0,0.0,50,0.00,,---,0.00,VWS V14.00,2013-02-15 14:48:00,
2013-02-15 07:49:00,10.0,-4.9,0.00,NW,323,0.0,0.0,50,0.00,,---,0.00,VWS V14.00,2013-02-15 14:49:00,
2013-02-15 07:51:00,10.0,-4.9,0.00,NW,317,0.0,0.0,50,0.00,,---,0.00,VWS V14.00,2013-02-15 14:51:00,
2013-02-15 07:53:00,10.2,-4.7,0.00,East,86,3.1,3.1,50,0.00,,---,0.00,VWS V14.00,2013-02-15 14:53:00,
2013-02-15 07:55:00,10.4,-4.6,0.00,SE,131,3.1,3.1,50,0.00,,---,0.00,VWS V14.00,2013-02-15 14:55:00,
2013-02-15 07:56:00,10.4,-4.6,0.00,SE,145,2.2,2.7,50,0.00,,---,0.00,VWS V14.00,2013-02-15 14:56:00,
2013-02-15 07:58:00,10.4,-4.6,0.00,NNE,15,2.7,2.7,50,0.00,,---,0.00,VWS V14.00,2013-02-15 14:58:00,
2013-02-15 08:00:00,10.6,-4.4,0.00,North,4,0.0,2.7,50,0.00,,---,0.00,VWS V14.00,2013-02-15 15:00:00,
2013-02-15 08:01:00,10.6,-4.4,0.00,ENE,73,0.0,0.0,50,0.00,,---,0.00,VWS V14.00,2013-02-15 15:01:00,
2013-02-15 08:03:00,10.8,-4.2,0.00,ENE,73,0.0,0.0,50,0.00,,---,0.00,VWS V14.00,2013-02-15 15:03:00,
2013-02-15 08:05:00,10.8,-4.2,0.00,ENE,73,0.0,0.0,50,0.00,,---,0.00,VWS V14.00,2013-02-15 15:05:00,
2013-02-15 08:06:00,10.9,-4.0,0.00,ENE,73,0.0,0.0,50,0.00,,---,0.00,VWS V14.00,2013-02-15 15:06:00,
2013-02-15 08:07:00,10.9,-4.0,0.00,ENE,73,0.0,0.0,50,0.00,,---,0.00,VWS V14.00,2013-02-15 15:07:00,
2013-02-15 08:08:00,10.9,-4.0,0.00,ENE,73,0.0,0.0,50,0.00,,---,0.00,VWS V14.00,2013-02-15 15:08:00,
2013-02-15 08:10:00,11.1,-3.9,0.00,ENE,73,0.0,0.0,50,0.00,,---,0.00,VWS V14.00,2013-02-15 15:10:00,
2013-02-15 08:11:00,11.1,-3.9,0.00,NW,322,3.1,3.6,50,0.00,,---,0.00,VWS V14.00,2013-02-15 15:11:00,
2013-02-15 08:12:00,11.3,-3.7,0.00,ESE,113,5.8,5.8,50,0.00,,---,0.00,VWS V14.00,2013-02-15 15:12:00,
2013-02-15 08:13:00,11.3,-3.7,0.00,ENE,74,2.2,5.4,50,0.00,,---,0.00,VWS V14.00,2013-02-15 15:13:00,
2013-02-15 08:15:00,11.5,-3.5,0.00,South,176,2.2,3.6,50,0.00,,---,0.00,VWS V14.00,2013-02-15 15:15:00,
2013-02-15 08:16:00,11.7,-3.4,0.00,SE,145,3.1,3.1,50,0.00,,---,0.00,VWS V14.00,2013-02-15 15:16:00,
2013-02-15 08:17:00,11.7,-3.4,0.00,SE,128,4.0,4.0,50,0.00,,---,0.00,VWS V14.00,2013-02-15 15:17:00,
2013-02-15 08:18:00,11.8,-3.2,0.00,SE,126,2.7,4.0,50,0.00,,---,0.00,VWS V14.00,2013-02-15 15:18:00,
2013-02-15 08:20:00,12.0,-3.0,0.00,East,100,5.4,7.6,50,0.00,,---,0.00,VWS V14.00,2013-02-15 15:20:00,
2013-02-15 08:21:00,12.0,-3.0,0.00,SW,223,0.0,3.6,50,0.00,,---,0.00,VWS V14.00,2013-02-15 15:21:00,
2013-02-15 08:22:00,12.2,-2.9,0.00,WSW,253,2.7,2.7,50,0.00,,---,0.00,VWS V14.00,2013-02-15 15:22:00,
2013-02-15 08:23:00,12.6,-2.5,0.00,SW,229,2.2,5.4,50,0.00,,---,0.00,VWS V14.00,2013-02-15 15:23:00,
2013-02-15 08:25:00,12.7,-2.4,0.00,South,173,3.1,3.1,50,0.00,,---,0.00,VWS V14.00,2013-02-15 15:25:00,
2013-02-15 08:26:00,12.7,-2.4,0.00,South,172,2.2,2.2,50,0.00,,---,0.00,VWS V14.00,2013-02-15 15:26:00,
2013-02-15 08:27:00,12.9,-2.2,0.00,SSW,210,0.0,0.0,50,0.00,,---,0.00,VWS V14.00,2013-02-15 15:27:00,
2013-02-15 08:28:00,13.1,-2.0,0.00,SSW,197,0.0,0.0,50,0.00,,---,0.00,VWS V14.00,2013-02-15 15:28:00,
2013-02-15 08:31:00,13.3,-1.9,0.00,SW,230,0.0,2.2,50,0.00,,---,0.00,VWS V14.00,2013-02-15 15:31:00,
2013-02-15 08:32:00,13.5,-1.7,0.00,SW,222,3.1,3.1,50,0.00,,---,0.00,VWS V14.00,2013-02-15 15:32:00,
2013-02-15 08:33:00,13.6,-1.5,0.00,SE,141,3.6,4.5,50,0.00,,---,0.00,VWS V14.00,2013-02-15 15:33:00,
2013-02-15 08:36:00,13.8,-1.4,0.00,SSW,193,0.0,0.0,50,0.00,,---,0.00,VWS V14.00,2013-02-15 15:36:00,
2013-02-15 08:37:00,13.8,-1.4,0.00,SSW,207,0.0,3.1,50,0.00,,---,0.00,VWS V14.00,2013-02-15 15:37:00,
2013-02-15 08:39:00,13.8,-1.4,0.00,South,170,4.0,4.0,50,0.00,,---,0.00,VWS V14.00,2013-02-15 15:39:00,
2013-02-15 08:41:00,14.2,-1.0,0.00,SW,222,0.0,4.0,50,0.00,,---,0.00,VWS V14.00,2013-02-15 15:41:00,
2013-02-15 08:42:00,14.4,-0.9,0.00,SW,225,0.0,0.0,50,0.00,,---,0.00,VWS V14.00,2013-02-15 15:42:00,
2013-02-15 08:44:00,14.4,-0.9,0.00,SW,222,0.0,0.0,50,0.00,,---,0.00,VWS V14.00,2013-02-15 15:44:00,
2013-02-15 08:46:00,14.5,-0.7,0.00,SE,131,2.7,2.7,50,0.00,,---,0.00,VWS V14.00,2013-02-15 15:46:00,
2013-02-15 08:47:00,14.5,-0.7,0.00,East,99,5.8,5.8,50,0.00,,---,0.00,VWS V14.00,2013-02-15 15:47:00,
2013-02-15 08:49:00,14.9,-0.4,0.00,SSW,201,0.0,0.0,50,0.00,,---,0.00,VWS V14.00,2013-02-15 15:49:00,
2013-02-15 08:51:00,14.9,-0.4,0.00,SSW,203,0.0,3.1,50,0.00,,---,0.00,VWS V14.00,2013-02-15 15:51:00,
2013-02-15 08:52:00,15.1,-0.2,0.00,ESE,104,8.1,8.1,50,0.00,,---,0.00,VWS V14.00,2013-02-15 15:52:00,
2013-02-15 08:53:00,15.1,-0.2,0.00,WSW,244,2.7,8.1,50,0.00,,---,0.00,VWS V14.00,2013-02-15 15:53:00,
2013-02-15 08:54:00,15.1,-0.6,0.00,ENE,72,5.4,5.4,49,0.00,,---,0.00,VWS V14.00,2013-02-15 15:54:00,
2013-02-15 08:56:00,15.4,-0.3,0.00,SE,145,6.3,8.3,49,0.00,,---,0.00,VWS V14.00,2013-02-15 15:56:00,
2013-02-15 08:57:00,15.4,-0.7,0.00,SSW,199,0.0,7.2,48,0.00,,---,0.00,VWS V14.00,2013-02-15 15:57:00,
2013-02-15 08:58:00,15.4,-0.7,0.00,SSW,213,3.6,7.2,48,0.00,,---,0.00,VWS V14.00,2013-02-15 15:58:00,
2013-02-15 08:59:00,15.6,-0.6,0.00,SSE,156,5.8,5.8,48,0.00,,---,0.00,VWS V14.00,2013-02-15 15:59:00,
2013-02-15 09:01:00,15.8,-0.4,0.00,East,101,6.3,6.3,48,0.00,,---,0.00,VWS V14.00,2013-02-15 16:01:00,
2013-02-15 09:02:00,15.8,-0.4,0.00,SE,130,4.0,5.8,48,0.00,,---,0.00,VWS V14.00,2013-02-15 16:02:00,
2013-02-15 09:03:00,15.8,-0.4,0.00,SE,130,3.6,4.0,48,0.00,,---,0.00,VWS V14.00,2013-02-15 16:03:00,
2013-02-15 09:04:00,16.0,-0.7,0.00,SE,143,4.0,4.0,47,0.00,,---,0.00,VWS V14.00,2013-02-15 16:04:00,
2013-02-15 09:07:00,16.0,-0.7,0.00,SW,215,2.7,5.4,47,0.00,,---,0.00,VWS V14.00,2013-02-15 16:07:00,
2013-02-15 09:08:00,16.2,-0.5,0.00,SSE,159,3.1,4.5,47,0.00,,---,0.00,VWS V14.00,2013-02-15 16:08:00,
2013-02-15 09:09:00,16.2,-0.5,0.00,SW,214,2.2,2.2,47,0.00,,---,0.00,VWS V14.00,2013-02-15 16:09:00,
2013-02-15 09:12:00,16.5,-0.6,0.00,South,190,3.1,4.9,46,0.00,,---,0.00,VWS V14.00,2013-02-15 16:12:00,
2013-02-15 09:13:00,16.5,-0.6,0.00,SE,146,3.1,6.3,46,0.00,,---,0.00,VWS V14.00,2013-02-15 16:13:00,
2013-02-15 09:14:00,16.7,-0.5,0.00,South,186,5.8,7.6,46,0.00,,---,0.00,VWS V14.00,2013-02-15 16:14:00,
2013-02-15 09:17:00,16.9,-0.3,0.00,SSW,199,2.7,3.1,46,0.00,,---,0.00,VWS V14.00,2013-02-15 16:17:00,
2013-02-15 09:18:00,16.9,-0.3,0.00,SE,134,5.4,5.4,46,0.00,,---,0.00,VWS V14.00,2013-02-15 16:18:00,
2013-02-15 09:19:00,16.9,-0.3,0.00,SSE,158,4.9,5.8,46,0.00,,---,0.00,VWS V14.00,2013-02-15 16:19:00,
2013-02-15 09:22:00,17.1,-0.6,0.00,SE,138,8.7,8.7,45,0.00,,---,0.00,VWS V14.00,2013-02-15 16:22:00,
2013-02-15 09:23:00,17.2,-0.4,0.00,ENE,78,9.6,9.6,45,0.00,,---,0.00,VWS V14.00,2013-02-15 16:23:00,
2013-02-15 09:24:00,17.4,-0.3,0.00,SSW,207,3.6,4.0,45,0.00,,---,0.00,VWS V14.00,2013-02-15 16:24:00,
2013-02-15 09:27:00,17.6,-0.1,0.00,SE,127,6.3,6.3,45,0.00,,---,0.00,VWS V14.00,2013-02-15 16:27:00,
2013-02-15 09:28:00,17.6,-0.1,0.00,SE,146,8.3,8.3,45,0.00,,---,0.00,VWS V14.00,2013-02-15 16:28:00,
2013-02-15 09:30:00,17.6,-0.1,0.00,South,191,2.7,2.7,45,0.00,,---,0.00,VWS V14.00,2013-02-15 16:30:00,
2013-02-15 09:32:00,17.8,0.1,0.00,SE,136,8.3,8.3,45,0.00,,---,0.00,VWS V14.00,2013-02-15 16:32:00,
2013-02-15 09:33:00,18.0,0.2,0.00,SSW,193,3.6,3.6,45,0.00,,---,0.00,VWS V14.00,2013-02-15 16:33:00,
2013-02-15 09:35:00,18.1,-0.1,0.00,ESE,118,6.7,7.2,44,0.00,,---,0.00,VWS V14.00,2013-02-15 16:35:00,
2013-02-15 09:37:00,18.1,0.4,0.00,ESE,116,2.7,5.4,45,0.00,,---,0.00,VWS V14.00,2013-02-15 16:37:00,
2013-02-15 09:38:00,18.1,0.4,0.00,ESE,106,7.6,7.6,45,0.00,,---,0.00,VWS V14.00,2013-02-15 16:38:00,
2013-02-15 09:40:00,18.3,0.6,0.00,SW,220,2.2,2.7,45,0.00,,---,0.00,VWS V14.00,2013-02-15 16:40:00,
2013-02-15 09:42:00,18.5,0.2,0.00,East,93,16.8,16.8,44,0.00,,---,0.00,VWS V14.00,2013-02-15 16:42:00,
2013-02-15 09:43:00,18.7,0.4,0.00,ESE,105,7.6,24.2,44,0.00,,---,0.00,VWS V14.00,2013-02-15 16:43:00,
2013-02-15 09:44:00,18.7,0.4,0.00,South,181,3.6,24.2,44,0.00,,---,0.00,VWS V14.00,2013-02-15 16:44:00,
2013-02-15 09:45:00,18.7,0.4,0.00,SSW,193,3.1,3.1,44,0.00,,---,0.00,VWS V14.00,2013-02-15 16:45:00,
2013-02-15 09:47:00,18.9,0.6,0.00,SSW,196,6.3,6.3,44,0.00,,---,0.00,VWS V14.00,2013-02-15 16:47:00,
2013-02-15 09:48:00,19.0,0.7,0.00,South,179,3.1,6.3,44,0.00,,---,0.00,VWS V14.00,2013-02-15 16:48:00,
2013-02-15 09:49:00,19.0,0.7,0.00,SSW,198,2.2,7.2,44,0.00,,---,0.00,VWS V14.00,2013-02-15 16:49:00,
2013-02-15 09:50:00,19.0,0.7,0.00,SE,139,5.4,5.4,44,0.00,,---,0.00,VWS V14.00,2013-02-15 16:50:00,
2013-02-15 09:53:00,19.2,0.4,0.00,South,177,4.5,8.3,43,0.00,,---,0.00,VWS V14.00,2013-02-15 16:53:00,
2013-02-15 09:54:00,19.2,0.4,0.00,SE,144,3.1,3.6,43,0.00,,---,0.00,VWS V14.00,2013-02-15 16:54:00,
2013-02-15 09:55:00,19.2,0.4,0.00,SSW,193,3.1,5.8,43,0.00,,---,0.00,VWS V14.00,2013-02-15 16:55:00,
2013-02-15 09:58:00,19.4,0.6,0.00,SSW,206,0.0,0.0,43,0.00,,---,0.00,VWS V14.00,2013-02-15 16:58:00,
2013-02-15 09:59:00,19.4,0.6,0.00,SW,235,5.8,5.8,43,0.00,,---,0.00,VWS V14.00,2013-02-15 16:59:00,
2013-02-15 10:00:00,19.4,0.6,0.00,ESE,123,3.6,3.6,43,0.00,,---,0.00,VWS V14.00,2013-02-15 17:00:00,
2013-02-15 10:03:00,19.6,0.7,0.00,South,179,3.1,3.6,43,0.00,,---,0.00,VWS V14.00,2013-02-15 17:03:00,
2013-02-15 10:04:00,19.8,0.9,0.00,East,83,4.0,5.4,43,0.00,,---,0.00,VWS V14.00,2013-02-15 17:04:00,
2013-02-15 10:05:00,19.8,0.9,0.00,SE,131,4.0,4.9,43,0.00,,---,0.00,VWS V14.00,2013-02-15 17:05:00,
2013-02-15 10:08:00,19.9,1.1,0.00,SE,141,3.6,3.6,43,0.00,,---,0.00,VWS V14.00,2013-02-15 17:08:00,
2013-02-15 10:09:00,19.9,1.1,0.00,SE,143,4.9,5.8,43,0.00,,---,0.00,VWS V14.00,2013-02-15 17:09:00,
2013-02-15 10:10:00,20.1,1.2,0.00,SE,131,2.7,2.7,43,0.00,,---,0.00,VWS V14.00,2013-02-15 17:10:00,
2013-02-15 10:13:00,20.1,1.2,0.00,ESE,122,2.7,8.7,43,0.00,,---,0.00,VWS V14.00,2013-02-15 17:13:00,
2013-02-15 10:14:00,20.3,1.4,0.00,SSE,160,3.6,6.3,43,0.00,,---,0.00,VWS V14.00,2013-02-15 17:14:00,
2013-02-15 10:15:00,20.3,1.4,0.00,SE,142,2.7,2.7,43,0.00,,---,0.00,VWS V14.00,2013-02-15 17:15:00,
2013-02-15 10:19:00,20.3,1.4,0.00,SSE,154,4.9,7.6,43,0.00,,---,0.00,VWS V14.00,2013-02-15 17:19:00,
2013-02-15 10:20:00,20.5,1.5,0.00,SSW,207,0.0,2.2,43,0.00,,---,0.00,VWS V14.00,2013-02-15 17:20:00,
2013-02-15 10:24:00,20.7,1.7,0.00,SE,143,0.0,3.6,43,0.00,,---,0.00,VWS V14.00,2013-02-15 17:24:00,
2013-02-15 10:25:00,20.8,1.9,0.00,SSW,204,0.0,3.1,43,0.00,,---,0.00,VWS V14.00,2013-02-15 17:25:00,
2013-02-15 10:29:00,21.0,2.0,0.00,SSW,208,4.9,4.9,43,0.00,,---,0.00,VWS V14.00,2013-02-15 17:29:00,
2013-02-15 10:30:00,21.0,2.0,0.00,South,185,3.1,4.9,43,0.00,,---,0.00,VWS V14.00,2013-02-15 17:30:00,
2013-02-15 10:34:00,21.0,2.0,0.00,SW,218,5.4,5.4,43,0.00,,---,0.00,VWS V14.00,2013-02-15 17:34:00,
2013-02-15 10:35:00,21.2,1.7,0.00,SSW,203,0.0,0.0,42,0.00,,---,0.00,VWS V14.00,2013-02-15 17:35:00,
2013-02-15 10:39:00,21.2,2.2,0.00,SW,230,3.6,3.6,43,0.00,,---,0.00,VWS V14.00,2013-02-15 17:39:00,
2013-02-15 10:40:00,21.2,1.7,0.00,SE,138,4.0,4.0,42,0.00,,---,0.00,VWS V14.00,2013-02-15 17:40:00,
2013-02-15 10:41:00,21.2,2.2,0.00,East,95,5.4,5.4,43,0.00,,---,0.00,VWS V14.00,2013-02-15 17:41:00,
2013-02-15 10:44:00,21.4,1.9,0.00,ESE,123,3.6,4.0,42,0.00,,---,0.00,VWS V14.00,2013-02-15 17:44:00,
2013-02-15 10:45:00,21.4,1.9,0.00,SSW,208,0.0,2.2,42,0.00,,---,0.00,VWS V14.00,2013-02-15 17:45:00,
2013-02-15 10:46:00,21.4,1.9,0.00,SW,235,0.0,2.2,42,0.00,,---,0.00,VWS V14.00,2013-02-15 17:46:00,
2013-02-15 10:49:00,21.6,2.0,0.00,ESE,103,5.4,5.4,42,0.00,,---,0.00,VWS V14.00,2013-02-15 17:49:00,
2013-02-15 10:50:00,21.7,2.2,0.00,SW,227,2.2,5.4,42,0.00,,---,0.00,VWS V14.00,2013-02-15 17:50:00,
2013-02-15 10:51:00,21.7,2.2,0.00,SW,222,2.2,5.4,42,0.00,,---,0.00,VWS V14.00,2013-02-15 17:51:00,
2013-02-15 10:54:00,21.9,2.4,0.00,South,183,2.2,2.7,42,0.00,,---,0.00,VWS V14.00,2013-02-15 17:54:00,
2013-02-15 10:55:00,21.9,2.4,0.00,SSW,206,0.0,2.7,42,0.00,,---,0.00,VWS V14.00,2013-02-15 17:55:00,
2013-02-15 10:56:00,21.9,2.4,0.00,SW,235,2.7,4.0,42,0.00,,---,0.00,VWS V14.00,2013-02-15 17:56:00,
2013-02-15 10:59:00,22.1,2.5,0.00,SSW,208,3.1,5.4,42,0.00,,---,0.00,VWS V14.00,2013-02-15 17:59:00,
2013-02-15 11:00:00,22.1,2.5,0.00,SSW,195,0.0,5.4,42,0.00,,---,0.00,VWS V14.00,2013-02-15 18:00:00,
2013-02-15 11:01:00,22.1,2.5,0.00,SSE,150,2.2,3.6,42,0.00,,---,0.00,VWS V14.00,2013-02-15 18:01:00,
2013-02-15 11:04:00,22.3,2.2,0.00,SW,233,3.1,3.6,41,0.00,,---,0.00,VWS V14.00,2013-02-15 18:04:00,
2013-02-15 11:05:00,22.3,2.2,0.00,SSW,206,0.0,3.6,41,0.00,,---,0.00,VWS V14.00,2013-02-15 18:05:00,
2013-02-15 11:06:00,22.3,2.2,0.00,SE,140,3.6,4.9,41,0.00,,---,0.00,VWS V14.00,2013-02-15 18:06:00,
2013-02-15 11:09:00,22.5,2.3,0.00,ESE,106,3.1,3.1,41,0.00,,---,0.00,VWS V14.00,2013-02-15 18:09:00,
2013-02-15 11:10:00,22.5,2.3,0.00,SSW,195,2.2,2.2,41,0.00,,---,0.00,VWS V14.00,2013-02-15 18:10:00,
2013-02-15 11:11:00,22.5,2.3,0.00,SW,219,3.1,3.1,41,0.00,,---,0.00,VWS V14.00,2013-02-15 18:11:00,
2013-02-15 11:14:00,22.6,2.5,0.00,ESE,111,3.6,6.3,41,0.00,,---,0.00,VWS V14.00,2013-02-15 18:14:00,
2013-02-15 11:15:00,22.6,2.5,0.00,WSW,237,2.7,5.4,41,0.00,,---,0.00,VWS V14.00,2013-02-15 18:15:00,
2013-02-15 11:16:00,22.6,2.5,0.00,SW,228,2.7,5.4,41,0.00,,---,0.00,VWS V14.00,2013-02-15 18:16:00,
2013-02-15 11:19:00,22.8,2.1,0.00,WSW,250,5.8,6.3,40,0.00,,---,0.00,VWS V14.00,2013-02-15 18:19:00,
2013-02-15 11:20:00,22.8,2.1,0.00,WNW,298,3.6,5.8,40,0.00,,---,0.00,VWS V14.00,2013-02-15 18:20:00,
2013-02-15 11:21:00,22.8,1.6,0.00,SW,234,0.0,0.0,39,0.00,,---,0.00,VWS V14.00,2013-02-15 18:21:00,
2013-02-15 11:24:00,22.8,2.1,0.00,SSW,197,3.6,4.0,40,0.00,,---,0.00,VWS V14.00,2013-02-15 18:24:00,
2013-02-15 11:25:00,22.8,2.1,0.00,SSW,207,3.6,3.6,40,0.00,,---,0.00,VWS V14.00,2013-02-15 18:25:00,
2013-02-15 11:26:00,22.8,2.1,0.00,SW,226,3.6,4.9,40,0.00,,---,0.00,VWS V14.00,2013-02-15 18:26:00,
2013-02-15 11:30:00,22.8,1.6,0.00,West,264,2.2,3.6,39,0.00,,---,0.00,VWS V14.00,2013-02-15 18:30:00,
2013-02-15 11:31:00,22.8,1.0,0.00,WSW,243,3.6,3.6,38,0.00,,---,0.00,VWS V14.00,2013-02-15 18:31:00,
2013-02-15 11:35:00,22.8,1.0,0.00,SW,226,3.1,3.1,38,0.00,,---,0.00,VWS V14.00,2013-02-15 18:35:00,
2013-02-15 11:36:00,22.8,1.0,0.00,SW,230,3.1,3.1,38,0.00,,---,0.00,VWS V14.00,2013-02-15 18:36:00,
2013-02-15 11:40:00,22.8,1.0,0.00,SSE,152,4.9,4.9,38,0.00,,---,0.00,VWS V14.00,2013-02-15 18:40:00,
2013-02-15 11:41:00,22.8,1.0,0.00,SSW,205,3.1,3.1,38,0.00,,---,0.00,VWS V14.00,2013-02-15 18:41:00,
2013-02-15 11:45:00,23.0,0.6,0.00,WSW,238,5.4,5.4,37,0.00,,---,0.00,VWS V14.00,2013-02-15 18:45:00,
2013-02-15 11:46:00,23.0,0.6,0.00,SW,227,0.0,5.4,37,0.00,,---,0.00,VWS V14.00,2013-02-15 18:46:00,
2013-02-15 11:50:00,23.0,0.6,0.00,NW,306,2.2,2.2,37,0.00,,---,0.00,VWS V14.00,2013-02-15 18:50:00,
2013-02-15 11:51:00,23.0,1.2,0.00,West,281,0.0,2.2,38,0.00,,---,0.00,VWS V14.00,2013-02-15 18:51:00,
2013-02-15 11:55:00,23.2,0.8,0.00,West,268,3.6,3.6,37,0.00,,---,0.00,VWS V14.00,2013-02-15 18:55:00,
2013-02-15 11:56:00,23.2,0.8,0.00,SW,232,2.2,2.2,37,0.00,,---,0.00,VWS V14.00,2013-02-15 18:56:00,
2013-02-15 12:00:00,23.4,1.5,0.00,ESE,116,0.0,4.0,38,0.00,,---,0.00,VWS V14.00,2013-02-15 19:00:00,
2013-02-15 12:01:00,23.4,1.5,0.00,SSE,147,5.4,5.4,38,0.00,,---,0.00,VWS V14.00,2013-02-15 19:01:00,
2013-02-15 12:02:00,23.5,1.7,0.00,ESE,120,6.3,6.3,38,0.00,,---,0.00,VWS V14.00,2013-02-15 19:02:00,
2013-02-15 12:05:00,23.5,1.7,0.00,ESE,107,8.1,8.1,38,0.00,,---,0.00,VWS V14.00,2013-02-15 19:05:00,
2013-02-15 12:06:00,23.5,1.7,0.00,ESE,113,4.0,4.0,38,0.00,,---,0.00,VWS V14.00,2013-02-15 19:06:00,
2013-02-15 12:07:00,23.7,2.4,0.00,East,87,5.8,5.8,39,0.00,,---,0.00,VWS V14.00,2013-02-15 19:07:00,
2013-02-15 12:10:00,23.9,2.6,0.00,SE,124,6.3,6.3,39,0.00,,---,0.00,VWS V14.00,2013-02-15 19:10:00,
2013-02-15 12:11:00,23.9,2.6,0.00,East,88,4.0,5.4,39,0.00,,---,0.00,VWS V14.00,2013-02-15 19:11:00,
2013-02-15 12:12:00,23.9,2.6,0.00,SE,128,6.3,6.3,39,0.00,,---,0.00,VWS V14.00,2013-02-15 19:12:00,
2013-02-15 12:15:00,24.1,2.7,0.00,SE,128,8.3,8.7,39,0.00,,---,0.00,VWS V14.00,2013-02-15 19:15:00,
2013-02-15 12:16:00,24.1,2.7,0.00,ESE,114,5.8,5.8,39,0.00,,---,0.00,VWS V14.00,2013-02-15 19:16:00,
2013-02-15 12:17:00,24.1,2.7,0.00,ESE,116,5.8,5.8,39,0.00,,---,0.00,VWS V14.00,2013-02-15 19:17:00,
2013-02-15 12:20:00,24.3,2.3,0.00,SSW,211,3.6,5.8,38,0.00,,---,0.00,VWS V14.00,2013-02-15 19:20:00,
2013-02-15 12:21:00,24.3,2.3,0.00,ESE,112,3.1,3.6,38,0.00,,---,0.00,VWS V14.00,2013-02-15 19:21:00,
2013-02-15 12:22:00,24.3,2.3,0.00,East,95,5.4,5.4,38,0.00,,---,0.00,VWS V14.00,2013-02-15 19:22:00,
2013-02-15 12:25:00,24.3,2.3,0.00,SSE,157,5.8,8.1,38,0.00,,---,0.00,VWS V14.00,2013-02-15 19:25:00,
2013-02-15 12:26:00,24.4,2.5,0.00,SW,217,0.0,5.8,38,0.00,,---,0.00,VWS V14.00,2013-02-15 19:26:00,
2013-02-15 12:27:00,24.4,1.9,0.00,SW,221,3.6,3.6,37,0.00,,---,0.00,VWS V14.00,2013-02-15 19:27:00,
2013-02-15 12:31:00,24.4,1.9,0.00,SW,215,8.7,8.7,37,0.00,,---,0.00,VWS V14.00,2013-02-15 19:31:00,
2013-02-15 12:32:00,24.4,2.5,0.00,SSE,168,3.6,3.6,38,0.00,,---,0.00,VWS V14.00,2013-02-15 19:32:00,
2013-02-15 12:36:00,24.6,2.7,0.00,SE,144,6.3,8.1,38,0.00,,---,0.00,VWS V14.00,2013-02-15 19:36:00,
2013-02-15 12:37:00,24.6,2.7,0.00,SE,131,8.3,8.3,38,0.00,,---,0.00,VWS V14.00,2013-02-15 19:37:00,
2013-02-15 12:41:00,24.8,2.8,0.00,SE,146,5.4,5.4,38,0.00,,---,0.00,VWS V14.00,2013-02-15 19:41:00,
2013-02-15 12:42:00,24.8,2.8,0.00,SE,131,7.6,7.6,38,0.00,,---,0.00,VWS V14.00,2013-02-15 19:42:00,
2013-02-15 12:43:00,24.8,2.8,0.00,ESE,120,8.1,8.1,38,0.00,,---,0.00,VWS V14.00,2013-02-15 19:43:00,
2013-02-15 12:46:00,24.8,2.8,0.00,ESE,106,4.0,13.2,38,0.00,,---,0.00,VWS V14.00,2013-02-15 19:46:00,
2013-02-15 12:47:00,24.8,3.4,0.00,SE,144,5.8,7.2,39,0.00,,---,0.00,VWS V14.00,2013-02-15 19:47:00,
2013-02-15 12:48:00,24.8,3.4,0.00,East,80,6.3,6.3,39,0.00,,---,0.00,VWS V14.00,2013-02-15 19:48:00,
2013-02-15 12:51:00,24.8,2.8,0.00,ESE,114,10.5,10.5,38,0.00,,---,0.00,VWS V14.00,2013-02-15 19:51:00,
2013-02-15 12:52:00,24.8,2.8,0.00,SE,139,5.4,5.4,38,0.00,,---,0.00,VWS V14.00,2013-02-15 19:52:00,
2013-02-15 12:53:00,24.8,2.8,0.00,East,89,8.1,8.1,38,0.00,,---,0.00,VWS V14.00,2013-02-15 19:53:00,
2013-02-15 12:56:00,24.8,2.8,0.00,SE,129,8.1,10.5,38,0.00,,---,0.00,VWS V14.00,2013-02-15 19:56:00,
2013-02-15 12:57:00,24.8,2.8,0.00,SE,134,4.9,4.9,38,0.00,,---,0.00,VWS V14.00,2013-02-15 19:57:00,
2013-02-15 12:58:00,24.8,2.8,0.00,SW,214,8.1,8.1,38,0.00,,---,0.00,VWS V14.00,2013-02-15 19:58:00,
2013-02-15 13:01:00,25.0,3.0,0.00,East,101,8.1,8.3,38,0.00,,---,0.00,VWS V14.00,2013-02-15 20:01:00,
2013-02-15 13:02:00,25.0,3.0,0.00,SE,128,5.4,8.7,38,0.00,,---,0.00,VWS V14.00,2013-02-15 20:02:00,
2013-02-15 13:03:00,25.0,3.0,0.00,ESE,114,15.0,15.0,38,0.00,,---,0.00,VWS V14.00,2013-02-15 20:03:00,
2013-02-15 13:06:00,25.0,3.0,0.00,SE,131,8.1,8.1,38,0.00,,---,0.00,VWS V14.00,2013-02-15 20:06:00,
2013-02-15 13:07:00,25.2,3.1,0.00,East,93,5.4,5.8,38,0.00,,---,0.00,VWS V14.00,2013-02-15 20:07:00,
2013-02-15 13:08:00,25.2,3.1,0.00,East,86,3.1,5.4,38,0.00,,---,0.00,VWS V14.00,2013-02-15 20:08:00,
2013-02-15 13:11:00,25.2,3.1,0.00,SSE,168,5.4,5.8,38,0.00,,---,0.00,VWS V14.00,2013-02-15 20:11:00,
2013-02-15 13:12:00,25.2,3.1,0.00,SE,142,8.7,8.7,38,0.00,,---,0.00,VWS V14.00,2013-02-15 20:12:00,
2013-02-15 13:13:00,25.2,3.1,0.00,SE,143,8.1,8.3,38,0.00,,---,0.00,VWS V14.00,2013-02-15 20:13:00,
2013-02-15 13:16:00,25.3,3.3,0.00,NNE,31,5.4,11.0,38,0.00,,---,0.00,VWS V14.00,2013-02-15 20:16:00,
2013-02-15 13:17:00,25.3,3.3,0.00,ESE,108,4.0,4.9,38,0.00,,---,0.00,VWS V14.00,2013-02-15 20:17:00,
2013-02-15 13:18:00,25.3,3.3,0.00,ESE,115,8.3,10.5,38,0.00,,---,0.00,VWS V14.00,2013-02-15 20:18:00,
2013-02-15 13:21:00,25.3,2.7,0.00,SE,130,7.2,10.1,37,0.00,,---,0.00,VWS V14.00,2013-02-15 20:21:00,
2013-02-15 13:22:00,25.3,2.7,0.00,ESE,108,5.4,8.1,37,0.00,,---,0.00,VWS V14.00,2013-02-15 20:22:00,
2013-02-15 13:23:00,25.3,2.7,0.00,ESE,110,11.0,11.0,37,0.00,,---,0.00,VWS V14.00,2013-02-15 20:23:00,
2013-02-15 13:26:00,25.3,2.7,0.00,SE,135,2.7,3.6,37,0.00,,---,0.00,VWS V14.00,2013-02-15 20:26:00,
2013-02-15 13:27:00,25.3,2.7,0.00,East,94,6.3,6.3,37,0.00,,---,0.00,VWS V14.00,2013-02-15 20:27:00,
2013-02-15 13:28:00,25.3,2.7,0.00,ESE,117,3.1,8.3,37,0.00,,---,0.00,VWS V14.00,2013-02-15 20:28:00,
2013-02-15 13:31:00,25.3,2.7,0.00,ESE,115,5.8,7.2,37,0.00,,---,0.00,VWS V14.00,2013-02-15 20:31:00,
2013-02-15 13:32:00,25.3,2.7,0.00,SSE,157,2.7,8.3,37,0.00,,---,0.00,VWS V14.00,2013-02-15 20:32:00,
2013-02-15 13:33:00,25.3,2.7,0.00,SSE,162,4.0,5.4,37,0.00,,---,0.00,VWS V14.00,2013-02-15 20:33:00,
2013-02-15 13:36:00,25.3,2.7,0.00,SE,140,8.7,10.1,37,0.00,,---,0.00,VWS V14.00,2013-02-15 20:36:00,
2013-02-15 13:37:00,25.3,2.7,0.00,SE,136,6.3,8.3,37,0.00,,---,0.00,VWS V14.00,2013-02-15 20:37:00,
2013-02-15 13:38:00,25.3,2.7,0.00,ESE,109,5.8,5.8,37,0.00,,---,0.00,VWS V14.00,2013-02-15 20:38:00,
2013-02-15 13:41:00,25.3,2.7,0.00,East,101,5.4,11.4,37,0.00,,---,0.00,VWS V14.00,2013-02-15 20:41:00,
2013-02-15 13:42:00,25.3,2.7,0.00,ESE,104,8.3,8.3,37,0.00,,---,0.00,VWS V14.00,2013-02-15 20:42:00,
2013-02-15 13:43:00,25.3,2.7,0.00,ESE,106,8.1,10.5,37,0.00,,---,0.00,VWS V14.00,2013-02-15 20:43:00,
2013-02-15 13:47:00,25.3,2.7,0.00,ESE,110,12.8,12.8,37,0.00,,---,0.00,VWS V14.00,2013-02-15 20:47:00,
2013-02-15 13:48:00,25.3,2.7,0.00,SE,135,6.7,12.8,37,0.00,,---,0.00,VWS V14.00,2013-02-15 20:48:00,
2013-02-15 13:52:00,25.3,2.7,0.00,East,101,8.1,8.1,37,0.00,,---,0.00,VWS V14.00,2013-02-15 20:52:00,
2013-02-15 13:53:00,25.3,2.7,0.00,SE,144,7.6,8.1,37,0.00,,---,0.00,VWS V14.00,2013-02-15 20:53:00,
2013-02-15 13:54:00,25.3,2.7,0.00,SE,129,5.8,6.3,37,0.00,,---,0.00,VWS V14.00,2013-02-15 20:54:00,
2013-02-15 13:57:00,25.3,2.7,0.00,ENE,76,7.6,12.8,37,0.00,,---,0.00,VWS V14.00,2013-02-15 20:57:00,
2013-02-15 13:58:00,25.3,2.7,0.00,East,98,10.5,10.5,37,0.00,,---,0.00,VWS V14.00,2013-02-15 20:58:00,
2013-02-15 13:59:00,25.3,2.7,0.00,East,94,8.1,8.1,37,0.00,,---,0.00,VWS V14.00,2013-02-15 20:59:00,
2013-02-15 14:02:00,25.3,2.7,0.00,ESE,110,8.1,10.1,37,0.00,,---,0.00,VWS V14.00,2013-02-15 21:02:00,
2013-02-15 14:03:00,25.3,2.7,0.00,ENE,74,4.0,5.4,37,0.00,,---,0.00,VWS V14.00,2013-02-15 21:03:00,
2013-02-15 14:04:00,25.3,2.7,0.00,East,89,8.7,8.7,37,0.00,,---,0.00,VWS V14.00,2013-02-15 21:04:00,
2013-02-15 14:08:00,25.3,2.7,0.00,ESE,102,9.6,9.6,37,0.00,,---,0.00,VWS V14.00,2013-02-15 21:08:00,
2013-02-15 14:09:00,25.3,2.7,0.00,ESE,123,8.3,8.3,37,0.00,,---,0.00,VWS V14.00,2013-02-15 21:09:00,
2013-02-15 14:13:00,25.3,2.1,0.00,ESE,118,8.7,9.6,36,0.00,,---,0.00,VWS V14.00,2013-02-15 21:13:00,
2013-02-15 14:14:00,25.3,2.1,0.00,ESE,104,6.3,6.3,36,0.00,,---,0.00,VWS V14.00,2013-02-15 21:14:00,
2013-02-15 14:18:00,25.3,2.1,0.00,SSE,147,5.8,5.8,36,0.00,,---,0.00,VWS V14.00,2013-02-15 21:18:00,
2013-02-15 14:19:00,25.3,2.1,0.00,NE,53,5.4,8.7,36,0.00,,---,0.00,VWS V14.00,2013-02-15 21:19:00,
2013-02-15 14:23:00,25.5,2.9,0.00,ESE,103,6.3,6.3,37,0.00,,---,0.00,VWS V14.00,2013-02-15 21:23:00,
2013-02-15 14:24:00,25.5,2.3,0.00,SSE,164,5.4,5.4,36,0.00,,---,0.00,VWS V14.00,2013-02-15 21:24:00,
2013-02-15 14:25:00,25.5,2.3,0.00,SSE,147,3.6,5.4,36,0.00,,---,0.00,VWS V14.00,2013-02-15 21:25:00,
2013-02-15 14:28:00,25.7,2.5,0.00,ESE,104,4.0,4.0,36,0.00,,---,0.00,VWS V14.00,2013-02-15 21:28:00,
2013-02-15 14:29:00,25.7,2.5,0.00,ESE,115,6.3,6.3,36,0.00,,---,0.00,VWS V14.00,2013-02-15 21:29:00,
2013-02-15 14:30:00,25.7,2.5,0.00,ESE,108,5.4,6.3,36,0.00,,---,0.00,VWS V14.00,2013-02-15 21:30:00,
2013-02-15 14:33:00,25.9,2.6,0.00,ESE,121,7.2,7.2,36,0.00,,---,0.00,VWS V14.00,2013-02-15 21:33:00,
2013-02-15 14:34:00,25.9,2.6,0.00,East,98,6.3,6.3,36,0.00,,---,0.00,VWS V14.00,2013-02-15 21:34:00,
2013-02-15 14:35:00,26.1,2.8,0.00,SSE,158,0.0,2.2,36,0.00,,---,0.00,VWS V14.00,2013-02-15 21:35:00,
2013-02-15 14:38:00,26.1,2.8,0.00,ESE,114,2.7,6.3,36,0.00,,---,0.00,VWS V14.00,2013-02-15 21:38:00,
2013-02-15 14:39:00,26.1,2.8,0.00,SSE,148,6.3,6.3,36,0.00,,---,0.00,VWS V14.00,2013-02-15 21:39:00,
2013-02-15 14:40:00,26.2,2.9,0.00,ESE,105,4.0,8.1,36,0.00,,---,0.00,VWS V14.00,2013-02-15 21:40:00,
2013-02-15 14:43:00,26.4,3.1,0.00,ESE,118,7.2,7.2,36,0.00,,---,0.00,VWS V14.00,2013-02-15 21:43:00,
2013-02-15 14:44:00,26.4,3.1,0.00,East,87,10.5,10.5,36,0.00,,---,0.00,VWS V14.00,2013-02-15 21:44:00,
2013-02-15 14:45:00,26.4,3.1,0.00,ESE,120,4.0,4.0,36,0.00,,---,0.00,VWS V14.00,2013-02-15 21:45:00,
2013-02-15 14:48:00,26.6,3.3,0.00,ESE,109,4.0,7.2,36,0.00,,---,0.00,VWS V14.00,2013-02-15 21:48:00,
2013-02-15 14:49:00,26.6,3.3,0.00,ESE,117,7.6,7.6,36,0.00,,---,0.00,VWS V14.00,2013-02-15 21:49:00,
2013-02-15 14:50:00,26.6,3.3,0.00,ENE,71,8.7,8.7,36,0.00,,---,0.00,VWS V14.00,2013-02-15 21:50:00,
2013-02-15 14:53:00,26.8,3.4,0.00,East,100,5.8,8.7,36,0.00,,---,0.00,VWS V14.00,2013-02-15 21:53:00,
2013-02-15 14:54:00,26.8,3.4,0.00,SW,224,3.6,4.9,36,0.00,,---,0.00,VWS V14.00,2013-02-15 21:54:00,
2013-02-15 14:55:00,27.0,3.0,0.00,ESE,117,5.8,8.7,35,0.00,,---,0.00,VWS V14.00,2013-02-15 21:55:00,
2013-02-15 14:59:00,27.0,3.6,0.00,SSE,154,4.0,5.8,36,0.00,,---,0.00,VWS V14.00,2013-02-15 21:59:00,
2013-02-15 15:00:00,27.0,3.6,0.00,ENE,68,4.0,8.3,36,0.00,,---,0.00,VWS V14.00,2013-02-15 22:00:00,
2013-02-15 15:04:00,27.1,3.7,0.00,East,101,9.6,9.6,36,0.00,,---,0.00,VWS V14.00,2013-02-15 22:04:00,
2013-02-15 15:05:00,27.1,3.1,0.00,SE,141,3.6,3.6,35,0.00,,---,0.00,VWS V14.00,2013-02-15 22:05:00,
2013-02-15 15:09:00,27.3,3.3,0.00,SSW,194,0.0,0.0,35,0.00,,---,0.00,VWS V14.00,2013-02-15 22:09:00,
2013-02-15 15:10:00,27.3,3.3,0.00,SSE,164,5.8,5.8,35,0.00,,---,0.00,VWS V14.00,2013-02-15 22:10:00,
2013-02-15 15:11:00,27.3,3.3,0.00,ESE,123,4.0,7.6,35,0.00,,---,0.00,VWS V14.00,2013-02-15 22:11:00,
2013-02-15 15:14:00,27.5,3.5,0.00,East,94,4.0,8.1,35,0.00,,---,0.00,VWS V14.00,2013-02-15 22:14:00,
2013-02-15 15:15:00,27.5,3.5,0.00,ESE,115,3.6,3.6,35,0.00,,---,0.00,VWS V14.00,2013-02-15 22:15:00,
2013-02-15 15:16:00,27.5,3.5,0.00,NE,44,4.0,7.6,35,0.00,,---,0.00,VWS V14.00,2013-02-15 22:16:00,
2013-02-15 15:19:00,27.7,3.6,0.00,ESE,119,2.7,2.7,35,0.00,,---,0.00,VWS V14.00,2013-02-15 22:19:00,
2013-02-15 15:20:00,27.7,3.6,0.00,SSW,203,0.0,3.1,35,0.00,,---,0.00,VWS V14.00,2013-02-15 22:20:00,
2013-02-15 15:21:00,27.7,3.6,0.00,SE,133,8.1,8.3,35,0.00,,---,0.00,VWS V14.00,2013-02-15 22:21:00,
2013-02-15 15:24:00,27.7,3.6,0.00,East,81,2.7,6.7,35,0.00,,---,0.00,VWS V14.00,2013-02-15 22:24:00,
2013-02-15 15:25:00,27.5,3.5,0.00,SE,138,5.4,5.4,35,0.00,,---,0.00,VWS V14.00,2013-02-15 22:25:00,
2013-02-15 15:26:00,27.5,3.5,0.00,SSE,151,4.0,4.9,35,0.00,,---,0.00,VWS V14.00,2013-02-15 22:26:00,
2013-02-15 15:29:00,27.5,3.5,0.00,East,88,4.9,4.9,35,0.00,,---,0.00,VWS V14.00,2013-02-15 22:29:00,
2013-02-15 15:30:00,27.5,3.5,0.00,ESE,109,6.3,7.6,35,0.00,,---,0.00,VWS V14.00,2013-02-15 22:30:00,
2013-02-15 15:31:00,27.5,3.5,0.00,ESE,110,3.6,8.1,35,0.00,,---,0.00,VWS V14.00,2013-02-15 22:31:00,
2013-02-15 15:34:00,27.5,3.5,0.00,ESE,120,3.6,3.6,35,0.00,,---,0.00,VWS V14.00,2013-02-15 22:34:00,
2013-02-15 15:35:00,27.5,3.5,0.00,ESE,122,3.1,5.4,35,0.00,,---,0.00,VWS V14.00,2013-02-15 22:35:00,
2013-02-15 15:37:00,27.5,3.5,0.00,SE,130,4.9,5.4,35,0.00,,---,0.00,VWS V14.00,2013-02-15 22:37:00,
2013-02-15 15:39:00,27.5,3.5,0.00,SE,142,6.3,6.3,35,0.00,,---,0.00,VWS V14.00,2013-02-15 22:39:00,
2013-02-15 15:40:00,27.5,2.8,0.00,SSW,211,5.8,5.8,34,0.00,,---,0.00,VWS V14.00,2013-02-15 22:40:00,
2013-02-15 15:42:00,27.3,2.7,0.00,WSW,238,3.1,3.1,34,0.00,,---,0.00,VWS V14.00,2013-02-15 22:42:00,
2013-02-15 15:44:00,27.3,2.7,0.00,ESE,118,4.0,4.0,34,0.00,,---,0.00,VWS V14.00,2013-02-15 22:44:00,
2013-02-15 15:45:00,27.3,2.7,0.00,East,90,5.8,6.3,34,0.00,,---,0.00,VWS V14.00,2013-02-15 22:45:00,
2013-02-15 15:47:00,27.1,2.5,0.00,SE,125,4.9,6.3,34,0.00,,---,0.00,VWS V14.00,2013-02-15 22:47:00,
2013-02-15 15:49:00,27.1,2.5,0.00,ESE,111,8.1,8.1,34,0.00,,---,0.00,VWS V14.00,2013-02-15 22:49:00,
2013-02-15 15:50:00,27.1,2.5,0.00,SE,130,4.0,8.7,34,0.00,,---,0.00,VWS V14.00,2013-02-15 22:50:00,
2013-02-15 15:52:00,27.1,2.5,0.00,SSE,161,4.0,5.4,34,0.00,,---,0.00,VWS V14.00,2013-02-15 22:52:00,
2013-02-15 15:54:00,27.0,2.3,0.00,SE,131,6.7,6.7,34,0.00,,---,0.00,VWS V14.00,2013-02-15 22:54:00,
2013-02-15 15:55:00,27.0,2.3,0.00,East,95,3.6,6.3,34,0.00,,---,0.00,VWS V14.00,2013-02-15 22:55:00,
2013-02-15 15:57:00,27.0,2.3,0.00,ESE,117,5.8,6.3,34,0.00,,---,0.00,VWS V14.00,2013-02-15 22:57:00,
2013-02-15 15:59:00,27.0,2.3,0.00,East,88,8.1,8.3,34,0.00,,---,0.00,VWS V14.00,2013-02-15 22:59:00,
2013-02-15 16:01:00,27.0,2.3,0.00,ESE,108,5.8,6.3,34,0.00,,---,0.00,VWS V14.00,2013-02-15 23:01:00,
2013-02-15 16:02:00,26.8,2.2,0.00,SE,134,8.1,8.1,34,0.00,,---,0.00,VWS V14.00,2013-02-15 23:02:00,
2013-02-15 16:04:00,26.8,2.2,0.00,East,98,3.1,4.9,34,0.00,,---,0.00,VWS V14.00,2013-02-15 23:04:00,
2013-02-15 16:06:00,26.8,2.2,0.00,ESE,107,5.4,8.3,34,0.00,,---,0.00,VWS V14.00,2013-02-15 23:06:00,
2013-02-15 16:07:00,26.6,2.0,0.00,NE,51,5.8,8.7,34,0.00,,---,0.00,VWS V14.00,2013-02-15 23:07:00,
2013-02-15 16:09:00,26.6,2.0,0.00,SE,142,3.6,4.0,34,0.00,,---,0.00,VWS V14.00,2013-02-15 23:09:00,
2013-02-15 16:11:00,26.6,2.0,0.00,SE,144,5.4,5.4,34,0.00,,---,0.00,VWS V14.00,2013-02-15 23:11:00,
2013-02-15 16:12:00,26.6,2.0,0.00,East,89,6.3,6.3,34,0.00,,---,0.00,VWS V14.00,2013-02-15 23:12:00,
2013-02-15 16:14:00,26.4,1.9,0.00,SE,125,3.6,4.9,34,0.00,,---,0.00,VWS V14.00,2013-02-15 23:14:00,
2013-02-15 16:15:00,26.4,1.9,0.00,ESE,107,6.3,6.3,34,0.00,,---,0.00,VWS V14.00,2013-02-15 23:15:00,
2013-02-15 16:16:00,26.4,1.9,0.00,SE,136,3.6,6.3,34,0.00,,---,0.00,VWS V14.00,2013-02-15 23:16:00,
2013-02-15 16:17:00,26.2,1.7,0.00,ESE,114,4.0,4.0,34,0.00,,---,0.00,VWS V14.00,2013-02-15 23:17:00,
2013-02-15 16:19:00,26.2,1.7,0.00,East,96,4.0,4.0,34,0.00,,---,0.00,VWS V14.00,2013-02-15 23:19:00,
2013-02-15 16:20:00,26.2,1.7,0.00,SE,136,3.1,5.4,34,0.00,,---,0.00,VWS V14.00,2013-02-15 23:20:00,
2013-02-15 16:21:00,26.2,1.7,0.00,SSE,163,2.2,5.4,34,0.00,,---,0.00,VWS V14.00,2013-02-15 23:21:00,
2013-02-15 16:23:00,26.2,1.7,0.00,SW,224,0.0,0.0,34,0.00,,---,0.00,VWS V14.00,2013-02-15 23:23:00,
2013-02-15 16:25:00,26.2,1.7,0.00,ESE,103,3.1,3.1,34,0.00,,---,0.00,VWS V14.00,2013-02-15 23:25:00,
2013-02-15 16:26:00,26.2,1.7,0.00,ESE,110,0.0,4.0,34,0.00,,---,0.00,VWS V14.00,2013-02-15 23:26:00,
2013-02-15 16:28:00,26.1,1.5,0.00,ESE,103,3.1,4.0,34,0.00,,---,0.00,VWS V14.00,2013-02-15 23:28:00,
2013-02-15 16:30:00,26.1,2.2,0.00,East,95,0.0,0.0,35,0.00,,---,0.00,VWS V14.00,2013-02-15 23:30:00,
2013-02-15 16:31:00,26.1,2.2,0.00,ESE,105,3.1,4.0,35,0.00,,---,0.00,VWS V14.00,2013-02-15 23:31:00,
2013-02-15 16:33:00,26.1,2.2,0.00,ESE,121,4.0,6.3,35,0.00,,---,0.00,VWS V14.00,2013-02-15 23:33:00,
2013-02-15 16:35:00,26.1,2.2,0.00,ESE,116,5.8,5.8,35,0.00,,---,0.00,VWS V14.00,2013-02-15 23:35:00,
2013-02-15 16:36:00,26.1,2.2,0.00,ENE,64,2.7,2.7,35,0.00,,---,0.00,VWS V14.00,2013-02-15 23:36:00,
2013-02-15 16:38:00,26.1,2.2,0.00,ESE,102,3.1,4.0,35,0.00,,---,0.00,VWS V14.00,2013-02-15 23:38:00,
2013-02-15 16:40:00,26.1,2.2,0.00,ESE,112,3.6,8.1,35,0.00,,---,0.00,VWS V14.00,2013-02-15 23:40:00,
2013-02-15 16:41:00,26.1,2.2,0.00,ESE,113,3.1,3.1,35,0.00,,---,0.00,VWS V14.00,2013-02-15 23:41:00,
2013-02-15 16:43:00,26.1,2.2,0.00,SSE,156,3.6,3.6,35,0.00,,---,0.00,VWS V14.00,2013-02-15 23:43:00,
2013-02-15 16:45:00,26.1,2.2,0.00,ESE,116,4.9,5.8,35,0.00,,---,0.00,VWS V14.00,2013-02-15 23:45:00,
2013-02-15 16:46:00,26.1,2.2,0.00,ESE,116,3.1,3.1,35,0.00,,---,0.00,VWS V14.00,2013-02-15 23:46:00,
2013-02-15 16:48:00,25.9,2.0,0.00,East,98,3.6,4.0,35,0.00,,---,0.00,VWS V14.00,2013-02-15 23:48:00,
2013-02-15 16:50:00,25.9,2.0,0.00,East,91,2.2,2.2,35,0.00,,---,0.00,VWS V14.00,2013-02-15 23:50:00,
2013-02-15 16:51:00,25.9,2.0,0.00,SE,126,4.9,4.9,35,0.00,,---,0.00,VWS V14.00,2013-02-15 23:51:00,
2013-02-15 16:53:00,25.7,1.9,0.00,SE,133,2.7,4.0,35,0.00,,---,0.00,VWS V14.00,2013-02-15 23:53:00,
2013-02-15 16:55:00,25.7,1.9,0.00,East,98,2.7,4.0,35,0.00,,---,0.00,VWS V14.00,2013-02-15 23:55:00,
2013-02-15 16:56:00,25.7,1.9,0.00,East,98,0.0,3.1,35,0.00,,---,0.00,VWS V14.00,2013-02-15 23:56:00,
2013-02-15 16:58:00,25.5,1.7,0.00,SE,124,3.6,4.0,35,0.00,,---,0.00,VWS V14.00,2013-02-15 23:58:00,
2013-02-15 17:01:00,25.5,1.7,0.00,ESE,108,0.0,0.0,35,0.00,,---,0.00,VWS V14.00,2013-02-16 00:01:00,
2013-02-15 17:03:00,25.3,1.5,0.00,ESE,108,0.0,0.0,35,0.00,,---,0.00,VWS V14.00,2013-02-16 00:03:00,
2013-02-15 17:06:00,25.3,1.5,0.00,ESE,108,0.0,0.0,35,0.00,,---,0.00,VWS V14.00,2013-02-16 00:06:00,
2013-02-15 17:07:00,25.3,1.5,0.00,ESE,108,0.0,0.0,35,0.00,,---,0.00,VWS V14.00,2013-02-16 00:07:00,
2013-02-15 17:09:00,25.3,1.5,0.00,ENE,74,0.0,2.7,35,0.00,,---,0.00,VWS V14.00,2013-02-16 00:09:00,
2013-02-15 17:11:00,25.2,1.4,0.00,East,82,2.7,2.7,35,0.00,,---,0.00,VWS V14.00,2013-02-16 00:11:00,
2013-02-15 17:12:00,25.2,1.4,0.00,East,88,0.0,0.0,35,0.00,,---,0.00,VWS V14.00,2013-02-16 00:12:00,
2013-02-15 17:14:00,25.0,1.2,0.00,East,79,2.7,2.7,35,0.00,,---,0.00,VWS V14.00,2013-02-16 00:14:00,
2013-02-15 17:16:00,24.8,1.0,0.00,ENE,62,0.0,0.0,35,0.00,,---,0.00,VWS V14.00,2013-02-16 00:16:00,
2013-02-15 17:17:00,24.8,1.0,0.00,ENE,62,0.0,0.0,35,0.00,,---,0.00,VWS V14.00,2013-02-16 00:17:00,
2013-02-15 17:19:00,24.8,1.0,0.00,ESE,107,4.0,4.0,35,0.00,,---,0.00,VWS V14.00,2013-02-16 00:19:00,
2013-02-15 17:21:00,24.6,0.9,0.00,NE,48,0.0,0.0,35,0.00,,---,0.00,VWS V14.00,2013-02-16 00:21:00,
2013-02-15 17:22:00,24.6,0.9,0.00,NE,48,0.0,0.0,35,0.00,,---,0.00,VWS V14.00,2013-02-16 00:22:00,
2013-02-15 17:24:00,24.4,0.7,0.00,NE,48,0.0,0.0,35,0.00,,---,0.00,VWS V14.00,2013-02-16 00:24:00,
2013-02-15 17:26:00,24.4,0.7,0.00,ENE,72,0.0,0.0,35,0.00,,---,0.00,VWS V14.00,2013-02-16 00:26:00,
2013-02-15 17:27:00,24.4,0.7,0.00,SE,125,0.0,0.0,35,0.00,,---,0.00,VWS V14.00,2013-02-16 00:27:00,
2013-02-15 17:29:00,24.3,0.6,0.00,SE,132,3.6,4.9,35,0.00,,---,0.00,VWS V14.00,2013-02-16 00:29:00,
2013-02-15 17:31:00,24.1,0.4,0.00,NNE,25,3.1,3.1,35,0.00,,---,0.00,VWS V14.00,2013-02-16 00:31:00,
2013-02-15 17:32:00,24.1,0.4,0.00,East,94,3.1,3.1,35,0.00,,---,0.00,VWS V14.00,2013-02-16 00:32:00,
2013-02-15 17:34:00,23.7,0.1,0.00,East,86,0.0,4.0,35,0.00,,---,0.00,VWS V14.00,2013-02-16 00:34:00,
2013-02-15 17:36:00,23.5,-0.1,0.00,SE,129,0.0,3.1,35,0.00,,---,0.00,VWS V14.00,2013-02-16 00:36:00,
2013-02-15 17:37:00,23.5,-0.1,0.00,ESE,108,0.0,0.0,35,0.00,,---,0.00,VWS V14.00,2013-02-16 00:37:00,
2013-02-15 17:39:00,23.5,-0.1,0.00,ESE,104,0.0,0.0,35,0.00,,---,0.00,VWS V14.00,2013-02-16 00:39:00,
2013-02-15 17:41:00,23.4,-0.2,0.00,SE,127,0.0,3.1,35,0.00,,---,0.00,VWS V14.00,2013-02-16 00:41:00,
2013-02-15 17:42:00,23.4,-0.2,0.00,SE,127,0.0,0.0,35,0.00,,---,0.00,VWS V14.00,2013-02-16 00:42:00,
2013-02-15 17:44:00,23.2,-0.4,0.00,ESE,122,0.0,0.0,35,0.00,,---,0.00,VWS V14.00,2013-02-16 00:44:00,
2013-02-15 17:46:00,23.0,0.0,0.00,SE,133,4.9,5.4,36,0.00,,---,0.00,VWS V14.00,2013-02-16 00:46:00,
2013-02-15 17:47:00,23.0,0.0,0.00,SSW,209,0.0,2.2,36,0.00,,---,0.00,VWS V14.00,2013-02-16 00:47:00,
2013-02-15 17:50:00,22.8,-0.1,0.00,ESE,116,3.1,3.6,36,0.00,,---,0.00,VWS V14.00,2013-02-16 00:50:00,
2013-02-15 17:51:00,22.8,-0.1,0.00,NE,45,0.0,4.0,36,0.00,,---,0.00,VWS V14.00,2013-02-16 00:51:00,
2013-02-15 17:52:00,22.8,-0.1,0.00,NE,53,2.2,4.0,36,0.00,,---,0.00,VWS V14.00,2013-02-16 00:52:00,
2013-02-15 17:55:00,22.6,-0.3,0.00,South,176,0.0,0.0,36,0.00,,---,0.00,VWS V14.00,2013-02-16 00:55:00,
2013-02-15 17:56:00,22.5,-0.4,0.00,East,101,0.0,3.6,36,0.00,,---,0.00,VWS V14.00,2013-02-16 00:56:00,
2013-02-15 17:57:00,22.5,-0.4,0.00,ESE,102,3.6,3.6,36,0.00,,---,0.00,VWS V14.00,2013-02-16 00:57:00,
2013-02-15 18:00:00,22.3,-0.6,0.00,ESE,108,3.6,5.8,36,0.00,,---,0.00,VWS V14.00,2013-02-16 01:00:00,
2013-02-15 18:01:00,22.1,-0.8,0.00,East,82,3.6,7.6,36,0.00,,---,0.00,VWS V14.00,2013-02-16 01:01:00,
2013-02-15 18:02:00,22.1,-0.8,0.00,ENE,74,4.0,5.8,36,0.00,,---,0.00,VWS V14.00,2013-02-16 01:02:00,
2013-02-15 18:04:00,21.9,-0.9,0.00,NE,43,2.7,3.1,36,0.00,,---,0.00,VWS V14.00,2013-02-16 01:04:00,
2013-02-15 18:05:00,21.9,-0.9,0.00,NW,310,0.0,0.0,36,0.00,,---,0.00,VWS V14.00,2013-02-16 01:05:00,
2013-02-15 18:06:00,21.9,-0.9,0.00,ENE,75,2.7,3.6,36,0.00,,---,0.00,VWS V14.00,2013-02-16 01:06:00,
2013-02-15 18:07:00,21.7,-1.1,0.00,SE,126,8.1,8.1,36,0.00,,---,0.00,VWS V14.00,2013-02-16 01:07:00,
2013-02-15 18:09:00,21.6,-1.2,0.00,ESE,110,4.9,6.7,36,0.00,,---,0.00,VWS V14.00,2013-02-16 01:09:00,
2013-02-15 18:10:00,21.6,-1.2,0.00,SSE,158,8.1,8.1,36,0.00,,---,0.00,VWS V14.00,2013-02-16 01:10:00,
2013-02-15 18:12:00,21.6,-1.2,0.00,East,82,2.7,2.7,36,0.00,,---,0.00,VWS V14.00,2013-02-16 01:12:00,
2013-02-15 18:14:00,21.4,-1.4,0.00,East,98,4.0,4.0,36,0.00,,---,0.00,VWS V14.00,2013-02-16 01:14:00,
2013-02-15 18:15:00,21.2,-1.6,0.00,ESE,122,6.3,8.1,36,0.00,,---,0.00,VWS V14.00,2013-02-16 01:15:00,
2013-02-15 18:17:00,21.2,-1.6,0.00,East,101,8.1,8.1,36,0.00,,---,0.00,VWS V14.00,2013-02-16 01:17:00,
2013-02-15 18:19:00,21.0,-1.7,0.00,SE,129,5.8,7.6,36,0.00,,---,0.00,VWS V14.00,2013-02-16 01:19:00,
2013-02-15 18:20:00,21.0,-1.7,0.00,SE,125,5.4,8.7,36,0.00,,---,0.00,VWS V14.00,2013-02-16 01:20:00,
2013-02-15 18:22:00,20.8,-1.9,0.00,SE,135,4.0,4.0,36,0.00,,---,0.00,VWS V14.00,2013-02-16 01:22:00,
2013-02-15 18:24:00,20.8,-1.9,0.00,ESE,103,4.9,4.9,36,0.00,,---,0.00,VWS V14.00,2013-02-16 01:24:00,
2013-02-15 18:26:00,20.8,-1.9,0.00,East,93,10.1,10.1,36,0.00,,---,0.00,VWS V14.00,2013-02-16 01:26:00,
2013-02-15 18:27:00,20.7,-2.1,0.00,East,81,8.1,8.1,36,0.00,,---,0.00,VWS V14.00,2013-02-16 01:27:00,
2013-02-15 18:29:00,20.7,-2.1,0.00,East,98,6.3,6.3,36,0.00,,---,0.00,VWS V14.00,2013-02-16 01:29:00,
2013-02-15 18:31:00,20.5,-2.2,0.00,East,99,3.1,4.0,36,0.00,,---,0.00,VWS V14.00,2013-02-16 01:31:00,
2013-02-15 18:32:00,20.5,-2.2,0.00,ESE,114,3.1,6.3,36,0.00,,---,0.00,VWS V14.00,2013-02-16 01:32:00,
2013-02-15 18:34:00,20.3,-2.4,0.00,ENE,73,6.3,6.3,36,0.00,,---,0.00,VWS V14.00,2013-02-16 01:34:00,
2013-02-15 18:36:00,20.3,-2.4,0.00,East,87,5.8,5.8,36,0.00,,---,0.00,VWS V14.00,2013-02-16 01:36:00,
2013-02-15 18:37:00,20.3,-2.4,0.00,ESE,116,5.8,12.3,36,0.00,,---,0.00,VWS V14.00,2013-02-16 01:37:00,
2013-02-15 18:40:00,20.1,-2.5,0.00,East,101,6.3,6.3,36,0.00,,---,0.00,VWS V14.00,2013-02-16 01:40:00,
2013-02-15 18:41:00,20.1,-2.5,0.00,NE,44,4.0,4.0,36,0.00,,---,0.00,VWS V14.00,2013-02-16 01:41:00,
2013-02-15 18:42:00,20.1,-2.5,0.00,ESE,113,6.3,9.2,36,0.00,,---,0.00,VWS V14.00,2013-02-16 01:42:00,
2013-02-15 18:43:00,20.1,-2.5,0.00,South,173,4.9,9.2,36,0.00,,---,0.00,VWS V14.00,2013-02-16 01:43:00,
2013-02-15 18:45:00,19.9,-2.7,0.00,SSW,198,2.7,3.6,36,0.00,,---,0.00,VWS V14.00,2013-02-16 01:45:00,
2013-02-15 18:46:00,19.9,-2.7,0.00,SE,125,4.9,4.9,36,0.00,,---,0.00,VWS V14.00,2013-02-16 01:46:00,
2013-02-15 18:47:00,19.9,-2.7,0.00,East,86,13.2,13.2,36,0.00,,---,0.00,VWS V14.00,2013-02-16 01:47:00,
2013-02-15 18:48:00,19.9,-2.7,0.00,East,86,13.2,13.2,36,0.00,,---,0.00,VWS V14.00,2013-02-16 01:48:00,
2013-02-15 18:50:00,19.8,-2.9,0.00,SE,134,3.1,5.4,36,0.00,,---,0.00,VWS V14.00,2013-02-16 01:50:00,
2013-02-15 18:51:00,19.8,-2.9,0.00,ESE,102,5.8,5.8,36,0.00,,---,0.00,VWS V14.00,2013-02-16 01:51:00,
2013-02-15 18:52:00,19.8,-2.9,0.00,ESE,114,0.0,5.4,36,0.00,,---,0.00,VWS V14.00,2013-02-16 01:52:00,
2013-02-15 18:53:00,19.8,-2.9,0.00,ESE,116,5.8,5.8,36,0.00,,---,0.00,VWS V14.00,2013-02-16 01:53:00,
2013-02-15 18:55:00,19.6,-2.5,0.00,ESE,105,4.9,5.4,37,0.00,,---,0.00,VWS V14.00,2013-02-16 01:55:00,
2013-02-15 18:56:00,19.6,-2.5,0.00,NE,38,5.8,5.8,37,0.00,,---,0.00,VWS V14.00,2013-02-16 01:56:00,
2013-02-15 18:58:00,19.6,-2.5,0.00,ESE,111,5.4,6.3,37,0.00,,---,0.00,VWS V14.00,2013-02-16 01:58:00,
2013-02-15 19:00:00,19.6,-2.5,0.00,SE,136,8.1,8.7,37,0.00,,---,0.00,VWS V14.00,2013-02-16 02:00:00,
2013-02-15 19:02:00,19.4,-2.6,0.00,East,93,4.0,8.1,37,0.00,,---,0.00,VWS V14.00,2013-02-16 02:02:00,
2013-02-15 19:03:00,19.4,-2.6,0.00,SE,127,3.6,9.6,37,0.00,,---,0.00,VWS V14.00,2013-02-16 02:03:00,
2013-02-15 19:05:00,19.4,-2.6,0.00,SE,142,5.8,6.7,37,0.00,,---,0.00,VWS V14.00,2013-02-16 02:05:00,
2013-02-15 19:07:00,19.4,-2.6,0.00,ESE,115,4.0,4.9,37,0.00,,---,0.00,VWS V14.00,2013-02-16 02:07:00,
2013-02-15 19:08:00,19.4,-2.6,0.00,ESE,116,6.3,6.3,37,0.00,,---,0.00,VWS V14.00,2013-02-16 02:08:00,
2013-02-15 19:10:00,19.2,-2.8,0.00,East,93,8.7,13.2,37,0.00,,---,0.00,VWS V14.00,2013-02-16 02:10:00,
2013-02-15 19:12:00,19.2,-2.8,0.00,East,96,8.1,8.3,37,0.00,,---,0.00,VWS V14.00,2013-02-16 02:12:00,
2013-02-15 19:13:00,19.2,-2.8,0.00,East,79,4.9,8.3,37,0.00,,---,0.00,VWS V14.00,2013-02-16 02:13:00,
2013-02-15 19:14:00,19.2,-2.8,0.00,ESE,112,5.8,12.8,37,0.00,,---,0.00,VWS V14.00,2013-02-16 02:14:00,
2013-02-15 19:16:00,19.2,-2.8,0.00,SSE,154,8.1,8.1,37,0.00,,---,0.00,VWS V14.00,2013-02-16 02:16:00,
2013-02-15 19:17:00,19.2,-2.8,0.00,SSE,151,8.1,8.1,37,0.00,,---,0.00,VWS V14.00,2013-02-16 02:17:00,
2013-02-15 19:18:00,19.2,-2.8,0.00,ESE,106,5.4,8.3,37,0.00,,---,0.00,VWS V14.00,2013-02-16 02:18:00,
2013-02-15 19:19:00,19.0,-2.9,0.00,SSE,160,3.6,8.3,37,0.00,,---,0.00,VWS V14.00,2013-02-16 02:19:00,
2013-02-15 19:21:00,19.0,-2.4,0.00,ESE,112,5.8,5.8,38,0.00,,---,0.00,VWS V14.00,2013-02-16 02:21:00,
2013-02-15 19:22:00,19.0,-2.4,0.00,East,91,4.0,8.7,38,0.00,,---,0.00,VWS V14.00,2013-02-16 02:22:00,
2013-02-15 19:23:00,19.0,-2.4,0.00,ENE,73,8.3,8.3,38,0.00,,---,0.00,VWS V14.00,2013-02-16 02:23:00,
2013-02-15 19:24:00,19.0,-2.4,0.00,ESE,108,5.4,8.3,38,0.00,,---,0.00,VWS V14.00,2013-02-16 02:24:00,
2013-02-15 19:26:00,19.0,-2.4,0.00,SE,140,5.4,8.7,38,0.00,,---,0.00,VWS V14.00,2013-02-16 02:26:00,
2013-02-15 19:28:00,19.0,-2.4,0.00,SSW,196,3.6,6.3,38,0.00,,---,0.00,VWS V14.00,2013-02-16 02:28:00,
2013-02-15 19:29:00,19.0,-2.4,0.00,SE,124,6.3,7.2,38,0.00,,---,0.00,VWS V14.00,2013-02-16 02:29:00,
2013-02-15 19:31:00,19.0,-2.4,0.00,South,186,4.0,6.3,38,0.00,,---,0.00,VWS V14.00,2013-02-16 02:31:00,
2013-02-15 19:33:00,19.0,-2.4,0.00,East,92,5.4,6.7,38,0.00,,---,0.00,VWS V14.00,2013-02-16 02:33:00,
2013-02-15 19:34:00,18.9,-2.5,0.00,ENE,65,5.8,10.5,38,0.00,,---,0.00,VWS V14.00,2013-02-16 02:34:00,
2013-02-15 19:36:00,18.9,-2.0,0.00,East,99,8.7,8.7,39,0.00,,---,0.00,VWS V14.00,2013-02-16 02:36:00,
2013-02-15 19:38:00,18.9,-2.0,0.00,SE,131,3.6,4.0,39,0.00,,---,0.00,VWS V14.00,2013-02-16 02:38:00,
2013-02-15 19:39:00,18.7,-2.2,0.00,NE,48,11.0,14.1,39,0.00,,---,0.00,VWS V14.00,2013-02-16 02:39:00,
2013-02-15 19:41:00,18.7,-2.2,0.00,SSE,153,6.3,8.3,39,0.00,,---,0.00,VWS V14.00,2013-02-16 02:41:00,
2013-02-15 19:43:00,18.7,-2.2,0.00,SSE,147,11.0,11.0,39,0.00,,---,0.00,VWS V14.00,2013-02-16 02:43:00,
2013-02-15 19:45:00,18.7,-2.2,0.00,SE,142,5.8,5.8,39,0.00,,---,0.00,VWS V14.00,2013-02-16 02:45:00,
2013-02-15 19:46:00,18.7,-2.2,0.00,SE,143,5.8,6.3,39,0.00,,---,0.00,VWS V14.00,2013-02-16 02:46:00,
2013-02-15 19:48:00,18.7,-2.2,0.00,East,96,6.3,6.3,39,0.00,,---,0.00,VWS V14.00,2013-02-16 02:48:00,
2013-02-15 19:50:00,18.7,-2.2,0.00,East,98,8.3,8.3,39,0.00,,---,0.00,VWS V14.00,2013-02-16 02:50:00,
2013-02-15 19:51:00,18.7,-1.6,0.00,East,96,6.3,7.6,40,0.00,,---,0.00,VWS V14.00,2013-02-16 02:51:00,
2013-02-15 19:53:00,18.7,-1.6,0.00,SE,137,5.4,5.4,40,0.00,,---,0.00,VWS V14.00,2013-02-16 02:53:00,
2013-02-15 19:54:00,18.7,-1.6,0.00,ESE,112,3.1,7.6,40,0.00,,---,0.00,VWS V14.00,2013-02-16 02:54:00,
2013-02-15 19:55:00,18.7,-1.6,0.00,East,87,6.3,7.6,40,0.00,,---,0.00,VWS V14.00,2013-02-16 02:55:00,
2013-02-15 19:56:00,18.7,-1.6,0.00,SSE,162,3.6,8.7,40,0.00,,---,0.00,VWS V14.00,2013-02-16 02:56:00,
2013-02-15 19:58:00,18.7,-1.6,0.00,SE,142,9.2,13.6,40,0.00,,---,0.00,VWS V14.00,2013-02-16 02:58:00,
2013-02-15 19:59:00,18.7,-1.6,0.00,ESE,116,8.1,8.3,40,0.00,,---,0.00,VWS V14.00,2013-02-16 02:59:00,
2013-02-15 20:00:00,18.7,-1.6,0.00,ESE,121,8.3,8.3,40,0.00,,---,0.00,VWS V14.00,2013-02-16 03:00:00,
2013-02-15 20:01:00,18.7,-1.6,0.00,East,82,11.9,11.9,40,0.00,,---,0.00,VWS V14.00,2013-02-16 03:01:00,
2013-02-15 20:03:00,18.9,-1.5,0.00,ESE,113,3.6,13.2,40,0.00,,---,0.00,VWS V14.00,2013-02-16 03:03:00,
2013-02-15 20:04:00,18.9,-0.9,0.00,SE,125,9.2,9.6,41,0.00,,---,0.00,VWS V14.00,2013-02-16 03:04:00,
2013-02-15 20:05:00,18.9,-0.9,0.00,ESE,122,4.0,4.0,41,0.00,,---,0.00,VWS V14.00,2013-02-16 03:05:00,
2013-02-15 20:06:00,18.9,-0.9,0.00,East,96,8.1,11.0,41,0.00,,---,0.00,VWS V14.00,2013-02-16 03:06:00,
2013-02-15 20:08:00,18.9,-0.9,0.00,ENE,73,8.7,8.7,41,0.00,,---,0.00,VWS V14.00,2013-02-16 03:08:00,
2013-02-15 20:09:00,19.0,-0.8,0.00,ESE,106,11.0,11.0,41,0.00,,---,0.00,VWS V14.00,2013-02-16 03:09:00,
2013-02-15 20:10:00,19.0,-0.8,0.00,ENE,77,8.1,8.1,41,0.00,,---,0.00,VWS V14.00,2013-02-16 03:10:00,
2013-02-15 20:11:00,19.0,-0.8,0.00,SE,127,4.9,15.0,41,0.00,,---,0.00,VWS V14.00,2013-02-16 03:11:00,
2013-02-15 20:13:00,19.0,-0.8,0.00,SE,131,8.3,14.5,41,0.00,,---,0.00,VWS V14.00,2013-02-16 03:13:00,
2013-02-15 20:14:00,19.0,-0.3,0.00,ESE,121,6.3,11.4,42,0.00,,---,0.00,VWS V14.00,2013-02-16 03:14:00,
2013-02-15 20:15:00,19.0,-0.3,0.00,SE,138,8.1,10.5,42,0.00,,---,0.00,VWS V14.00,2013-02-16 03:15:00,
2013-02-15 20:16:00,19.0,-0.3,0.00,SE,127,11.0,11.0,42,0.00,,---,0.00,VWS V14.00,2013-02-16 03:16:00,
2013-02-15 20:18:00,19.0,-0.3,0.00,SE,133,6.3,12.3,42,0.00,,---,0.00,VWS V14.00,2013-02-16 03:18:00,
2013-02-15 20:19:00,19.0,-0.3,0.00,ESE,104,4.0,5.8,42,0.00,,---,0.00,VWS V14.00,2013-02-16 03:19:00,
2013-02-15 20:20:00,19.2,-0.1,0.00,ESE,106,12.8,12.8,42,0.00,,---,0.00,VWS V14.00,2013-02-16 03:20:00,
2013-02-15 20:21:00,19.2,-0.1,0.00,ESE,120,5.4,9.6,42,0.00,,---,0.00,VWS V14.00,2013-02-16 03:21:00,
2013-02-15 20:23:00,19.2,-0.1,0.00,East,98,8.7,8.7,42,0.00,,---,0.00,VWS V14.00,2013-02-16 03:23:00,
2013-02-15 20:24:00,19.2,0.4,0.00,East,98,6.3,9.6,43,0.00,,---,0.00,VWS V14.00,2013-02-16 03:24:00,
2013-02-15 20:25:00,19.2,0.4,0.00,East,87,11.0,14.5,43,0.00,,---,0.00,VWS V14.00,2013-02-16 03:25:00,
2013-02-15 20:26:00,19.2,0.4,0.00,East,101,11.0,11.0,43,0.00,,---,0.00,VWS V14.00,2013-02-16 03:26:00,
2013-02-15 20:28:00,19.4,0.6,0.00,South,176,5.8,10.1,43,0.00,,---,0.00,VWS V14.00,2013-02-16 03:28:00,
2013-02-15 20:29:00,19.4,0.6,0.00,ESE,104,4.9,14.5,43,0.00,,---,0.00,VWS V14.00,2013-02-16 03:29:00,
2013-02-15 20:30:00,19.4,0.6,0.00,SE,131,5.4,7.6,43,0.00,,---,0.00,VWS V14.00,2013-02-16 03:30:00,
2013-02-15 20:31:00,19.4,0.6,0.00,ESE,113,15.4,17.4,43,0.00,,---,0.00,VWS V14.00,2013-02-16 03:31:00,
2013-02-15 20:34:00,19.4,0.6,0.00,SE,137,10.1,12.3,43,0.00,,---,0.00,VWS V14.00,2013-02-16 03:34:00,
2013-02-15 20:35:00,19.4,0.6,0.00,NE,40,11.0,11.0,43,0.00,,---,0.00,VWS V14.00,2013-02-16 03:35:00,
2013-02-15 20:36:00,19.4,0.6,0.00,WSW,237,17.0,17.0,43,0.00,,---,0.00,VWS V14.00,2013-02-16 03:36:00,
2013-02-15 20:39:00,19.6,0.7,0.00,SE,128,11.0,11.0,43,0.00,,---,0.00,VWS V14.00,2013-02-16 03:39:00,
2013-02-15 20:40:00,19.6,0.7,0.00,SE,125,11.0,11.0,43,0.00,,---,0.00,VWS V14.00,2013-02-16 03:40:00,
2013-02-15 20:41:00,19.6,0.7,0.00,East,88,8.7,8.7,43,0.00,,---,0.00,VWS V14.00,2013-02-16 03:41:00,
2013-02-15 20:42:00,19.6,0.7,0.00,East,87,8.3,11.9,43,0.00,,---,0.00,VWS V14.00,2013-02-16 03:42:00,
2013-02-15 20:44:00,19.6,0.7,0.00,East,88,8.3,10.1,43,0.00,,---,0.00,VWS V14.00,2013-02-16 03:44:00,
2013-02-15 20:45:00,19.6,0.7,0.00,East,94,9.6,9.6,43,0.00,,---,0.00,VWS V14.00,2013-02-16 03:45:00,
2013-02-15 20:46:00,19.6,0.7,0.00,SE,127,8.7,8.7,43,0.00,,---,0.00,VWS V14.00,2013-02-16 03:46:00,
2013-02-15 20:47:00,19.8,0.9,0.00,ESE,109,6.3,6.7,43,0.00,,---,0.00,VWS V14.00,2013-02-16 03:47:00,
2013-02-15 20:49:00,19.8,0.9,0.00,ENE,77,3.6,17.9,43,0.00,,---,0.00,VWS V14.00,2013-02-16 03:49:00,
2013-02-15 20:50:00,19.8,0.9,0.00,ESE,111,8.3,8.3,43,0.00,,---,0.00,VWS V14.00,2013-02-16 03:50:00,
2013-02-15 20:51:00,19.8,0.9,0.00,SSE,155,3.6,9.6,43,0.00,,---,0.00,VWS V14.00,2013-02-16 03:51:00,
2013-02-15 20:53:00,19.8,0.9,0.00,SW,236,8.1,8.1,43,0.00,,---,0.00,VWS V14.00,2013-02-16 03:53:00,
2013-02-15 20:55:00,19.9,1.1,0.00,SSE,152,3.1,14.1,43,0.00,,---,0.00,VWS V14.00,2013-02-16 03:55:00,
2013-02-15 20:56:00,19.9,1.1,0.00,SSE,154,2.7,5.8,43,0.00,,---,0.00,VWS V14.00,2013-02-16 03:56:00,
2013-02-15 20:58:00,20.1,1.2,0.00,East,79,8.7,8.7,43,0.00,,---,0.00,VWS V14.00,2013-02-16 03:58:00,
2013-02-15 21:00:00,20.1,1.2,0.00,WNW,282,3.6,3.6,43,0.00,,---,0.00,VWS V14.00,2013-02-16 04:00:00,
2013-02-15 21:01:00,20.1,1.2,0.00,SSW,192,3.1,8.3,43,0.00,,---,0.00,VWS V14.00,2013-02-16 04:01:00,
2013-02-15 21:03:00,20.3,1.4,0.00,South,181,2.7,3.6,43,0.00,,---,0.00,VWS V14.00,2013-02-16 04:03:00,
2013-02-15 21:05:00,20.3,1.4,0.00,SSE,154,4.0,4.0,43,0.00,,---,0.00,VWS V14.00,2013-02-16 04:05:00,
2013-02-15 21:06:00,20.3,1.4,0.00,SSW,204,3.6,3.6,43,0.00,,---,0.00,VWS V14.00,2013-02-16 04:06:00,
2013-02-15 21:08:00,20.5,1.5,0.00,East,96,3.6,6.3,43,0.00,,---,0.00,VWS V14.00,2013-02-16 04:08:00,
2013-02-15 21:10:00,20.5,1.5,0.00,SSE,165,2.7,2.7,43,0.00,,---,0.00,VWS V14.00,2013-02-16 04:10:00,
2013-02-15 21:11:00,20.7,1.7,0.00,ESE,117,11.0,11.0,43,0.00,,---,0.00,VWS V14.00,2013-02-16 04:11:00,
2013-02-15 21:13:00,20.8,1.9,0.00,South,186,4.0,8.7,43,0.00,,---,0.00,VWS V14.00,2013-02-16 04:13:00,
2013-02-15 21:15:00,21.0,2.0,0.00,ENE,62,6.3,6.3,43,0.00,,---,0.00,VWS V14.00,2013-02-16 04:15:00,
2013-02-15 21:16:00,21.0,2.0,0.00,SE,130,3.1,7.2,43,0.00,,---,0.00,VWS V14.00,2013-02-16 04:16:00,
2013-02-15 21:18:00,21.2,2.2,0.00,SE,135,2.2,5.4,43,0.00,,---,0.00,VWS V14.00,2013-02-16 04:18:00,
2013-02-15 21:20:00,21.2,2.2,0.00,ESE,108,4.0,5.8,43,0.00,,---,0.00,VWS V14.00,2013-02-16 04:20:00,
2013-02-15 21:21:00,21.2,2.2,0.00,SE,127,3.1,5.8,43,0.00,,---,0.00,VWS V14.00,2013-02-16 04:21:00,
2013-02-15 21:24:00,21.2,2.2,0.00,SSW,198,0.0,3.1,43,0.00,,---,0.00,VWS V14.00,2013-02-16 04:24:00,
2013-02-15 21:25:00,21.2,2.2,0.00,SSW,203,0.0,0.0,43,0.00,,---,0.00,VWS V14.00,2013-02-16 04:25:00,
2013-02-15 21:26:00,21.2,2.2,0.00,SW,230,3.6,3.6,43,0.00,,---,0.00,VWS V14.00,2013-02-16 04:26:00,
2013-02-15 21:27:00,21.2,2.2,0.00,East,79,4.9,6.3,43,0.00,,---,0.00,VWS V14.00,2013-02-16 04:27:00,
2013-02-15 21:29:00,21.4,1.9,0.00,SE,130,3.6,8.1,42,0.00,,---,0.00,VWS V14.00,2013-02-16 04:29:00,
2013-02-15 21:30:00,21.6,2.0,0.00,East,97,4.0,4.0,42,0.00,,---,0.00,VWS V14.00,2013-02-16 04:30:00,
2013-02-15 21:31:00,21.6,2.0,0.00,South,178,2.2,3.1,42,0.00,,---,0.00,VWS V14.00,2013-02-16 04:31:00,
2013-02-15 21:32:00,21.6,2.0,0.00,SSE,158,2.2,2.7,42,0.00,,---,0.00,VWS V14.00,2013-02-16 04:32:00,
2013-02-15 21:34:00,21.6,2.0,0.00,SE,134,8.1,8.7,42,0.00,,---,0.00,VWS V14.00,2013-02-16 04:34:00,
2013-02-15 21:35:00,21.7,2.2,0.00,ESE,113,3.6,5.8,42,0.00,,---,0.00,VWS V14.00,2013-02-16 04:35:00,
2013-02-15 21:36:00,21.7,2.2,0.00,SW,214,3.1,3.6,42,0.00,,---,0.00,VWS V14.00,2013-02-16 04:36:00,
2013-02-15 21:37:00,21.7,2.2,0.00,ESE,119,3.1,3.1,42,0.00,,---,0.00,VWS V14.00,2013-02-16 04:37:00,
2013-02-15 21:39:00,21.9,2.4,0.00,East,84,3.6,7.6,42,0.00,,---,0.00,VWS V14.00,2013-02-16 04:39:00,
2013-02-15 21:40:00,21.9,2.4,0.00,SSW,198,0.0,2.7,42,0.00,,---,0.00,VWS V14.00,2013-02-16 04:40:00,
2013-02-15 21:41:00,21.9,2.4,0.00,SSW,201,0.0,2.2,42,0.00,,---,0.00,VWS V14.00,2013-02-16 04:41:00,
2013-02-15 21:42:00,21.9,2.4,0.00,SSW,201,0.0,0.0,42,0.00,,---,0.00,VWS V14.00,2013-02-16 04:42:00,
2013-02-15 21:44:00,21.9,2.4,0.00,SSW,211,0.0,0.0,42,0.00,,---,0.00,VWS V14.00,2013-02-16 04:44:00,
2013-02-15 21:45:00,21.9,2.4,0.00,SW,223,0.0,2.2,42,0.00,,---,0.00,VWS V14.00,2013-02-16 04:45:00,
2013-02-15 21:46:00,21.7,2.2,0.00,East,96,3.1,3.1,42,0.00,,---,0.00,VWS V14.00,2013-02-16 04:46:00,
2013-02-15 21:47:00,21.7,2.2,0.00,NNE,16,4.9,4.9,42,0.00,,---,0.00,VWS V14.00,2013-02-16 04:47:00,
2013-02-15 21:49:00,21.7,2.2,0.00,SSE,154,4.0,4.0,42,0.00,,---,0.00,VWS V14.00,2013-02-16 04:49:00,
2013-02-15 21:51:00,21.7,2.2,0.00,ENE,67,3.1,3.1,42,0.00,,---,0.00,VWS V14.00,2013-02-16 04:51:00,
2013-02-15 21:52:00,21.7,2.2,0.00,South,188,2.2,2.7,42,0.00,,---,0.00,VWS V14.00,2013-02-16 04:52:00,
2013-02-15 21:54:00,21.7,2.2,0.00,NW,325,3.6,3.6,42,0.00,,---,0.00,VWS V14.00,2013-02-16 04:54:00,
2013-02-15 21:56:00,21.6,2.0,0.00,SW,215,3.6,3.6,42,0.00,,---,0.00,VWS V14.00,2013-02-16 04:56:00,
2013-02-15 21:57:00,21.6,2.0,0.00,NE,54,3.1,3.6,42,0.00,,---,0.00,VWS V14.00,2013-02-16 04:57:00,
2013-02-15 21:59:00,21.4,1.9,0.00,NNW,337,0.0,0.0,42,0.00,,---,0.00,VWS V14.00,2013-02-16 04:59:00,
2013-02-15 22:00:00,21.4,1.9,0.00,NNW,336,0.0,0.0,42,0.00,,---,0.00,VWS V14.00,2013-02-16 05:00:00,
2013-02-15 22:05:00,21.2,2.2,0.00,NW,315,2.7,2.7,43,0.00,,---,0.00,VWS V14.00,2013-02-16 05:05:00,
2013-02-15 22:10:00,21.2,2.2,0.00,West,280,0.0,0.0,43,0.00,,---,0.00,VWS V14.00,2013-02-16 05:10:00,
2013-02-15 22:15:00,21.0,2.0,0.00,NW,313,4.0,4.0,43,0.00,,---,0.00,VWS V14.00,2013-02-16 05:15:00,
2013-02-15 22:20:00,21.0,2.0,0.00,ESE,104,2.2,2.7,43,0.00,,---,0.00,VWS V14.00,2013-02-16 05:20:00,
2013-02-15 22:23:00,21.0,2.0,0.00,NW,319,3.1,3.1,43,0.00,,---,0.00,VWS V14.00,2013-02-16 05:23:00,
2013-02-15 22:25:00,20.8,1.9,0.00,West,271,2.7,2.7,43,0.00,,---,0.00,VWS V14.00,2013-02-16 05:25:00,
2013-02-15 22:28:00,20.8,1.9,0.00,NW,323,2.7,3.1,43,0.00,,---,0.00,VWS V14.00,2013-02-16 05:28:00,
2013-02-15 22:30:00,20.8,1.9,0.00,ENE,59,2.7,2.7,43,0.00,,---,0.00,VWS V14.00,2013-02-16 05:30:00,
2013-02-15 22:33:00,20.8,1.9,0.00,East,86,0.0,4.0,43,0.00,,---,0.00,VWS V14.00,2013-02-16 05:33:00,
2013-02-15 22:35:00,20.8,1.9,0.00,NNE,19,0.0,4.0,43,0.00,,---,0.00,VWS V14.00,2013-02-16 05:35:00,
2013-02-15 22:38:00,20.8,1.9,0.00,NW,314,0.0,0.0,43,0.00,,---,0.00,VWS V14.00,2013-02-16 05:38:00,
2013-02-15 22:40:00,20.8,1.9,0.00,NW,325,3.6,3.6,43,0.00,,---,0.00,VWS V14.00,2013-02-16 05:40:00,
2013-02-15 22:41:00,20.8,1.9,0.00,NNW,334,2.7,2.7,43,0.00,,---,0.00,VWS V14.00,2013-02-16 05:41:00,
2013-02-15 22:43:00,20.8,1.9,0.00,ENE,77,3.6,3.6,43,0.00,,---,0.00,VWS V14.00,2013-02-16 05:43:00,
2013-02-15 22:45:00,20.8,1.9,0.00,ESE,105,7.6,7.6,43,0.00,,---,0.00,VWS V14.00,2013-02-16 05:45:00,
2013-02-15 22:46:00,20.8,1.9,0.00,SSE,159,0.0,7.6,43,0.00,,---,0.00,VWS V14.00,2013-02-16 05:46:00,
2013-02-15 22:48:00,20.8,1.9,0.00,SSW,202,0.0,2.7,43,0.00,,---,0.00,VWS V14.00,2013-02-16 05:48:00,
2013-02-15 22:50:00,21.0,2.0,0.00,SSW,205,0.0,0.0,43,0.00,,---,0.00,VWS V14.00,2013-02-16 05:50:00,
2013-02-15 22:51:00,21.0,2.0,0.00,SW,229,0.0,2.7,43,0.00,,---,0.00,VWS V14.00,2013-02-16 05:51:00,
2013-02-15 22:53:00,21.0,2.0,0.00,West,270,0.0,0.0,43,0.00,,---,0.00,VWS V14.00,2013-02-16 05:53:00,
2013-02-15 22:55:00,21.0,2.0,0.00,West,269,0.0,0.0,43,0.00,,---,0.00,VWS V14.00,2013-02-16 05:55:00,
2013-02-15 22:56:00,21.0,2.0,0.00,West,269,0.0,0.0,43,0.00,,---,0.00,VWS V14.00,2013-02-16 05:56:00,
2013-02-15 22:58:00,20.8,1.9,0.00,WNW,300,0.0,0.0,43,0.00,,---,0.00,VWS V14.00,2013-02-16 05:58:00,
2013-02-15 23:00:00,20.8,1.9,0.00,NW,304,0.0,2.2,43,0.00,,---,0.00,VWS V14.00,2013-02-16 06:00:00,
2013-02-15 23:01:00,20.8,1.9,0.00,NW,304,0.0,0.0,43,0.00,,---,0.00,VWS V14.00,2013-02-16 06:01:00,
2013-02-15 23:03:00,20.8,1.9,0.00,WNW,285,0.0,0.0,43,0.00,,---,0.00,VWS V14.00,2013-02-16 06:03:00,
2013-02-15 23:05:00,20.7,1.7,0.00,WSW,256,2.2,2.2,43,0.00,,---,0.00,VWS V14.00,2013-02-16 06:05:00,
2013-02-15 23:06:00,20.7,1.7,0.00,WSW,256,2.2,2.2,43,0.00,,---,0.00,VWS V14.00,2013-02-16 06:06:00,
2013-02-15 23:08:00,20.7,1.7,0.00,West,269,2.2,2.7,43,0.00,,---,0.00,VWS V14.00,2013-02-16 06:08:00,
2013-02-15 23:10:00,20.5,1.5,0.00,West,271,0.0,0.0,43,0.00,,---,0.00,VWS V14.00,2013-02-16 06:10:00,
2013-02-15 23:11:00,20.5,1.5,0.00,West,271,0.0,0.0,43,0.00,,---,0.00,VWS V14.00,2013-02-16 06:11:00,
2013-02-15 23:13:00,20.5,1.5,0.00,NW,304,0.0,2.2,43,0.00,,---,0.00,VWS V14.00,2013-02-16 06:13:00,
2013-02-15 23:15:00,20.5,1.5,0.00,WNW,295,0.0,0.0,43,0.00,,---,0.00,VWS V14.00,2013-02-16 06:15:00,
2013-02-15 23:16:00,20.5,1.5,0.00,WNW,293,0.0,0.0,43,0.00,,---,0.00,VWS V14.00,2013-02-16 06:16:00,
2013-02-15 23:18:00,20.3,1.4,0.00,WNW,286,0.0,2.2,43,0.00,,---,0.00,VWS V14.00,2013-02-16 06:18:00,
2013-02-15 23:21:00,20.3,1.4,0.00,WNW,294,0.0,0.0,43,0.00,,---,0.00,VWS V14.00,2013-02-16 06:21:00,
2013-02-15 23:23:00,20.3,1.4,0.00,WNW,294,0.0,0.0,43,0.00,,---,0.00,VWS V14.00,2013-02-16 06:23:00,
2013-02-15 23:26:00,20.3,1.4,0.00,WNW,294,0.0,0.0,43,0.00,,---,0.00,VWS V14.00,2013-02-16 06:26:00,
2013-02-15 23:28:00,20.1,1.2,0.00,NW,304,2.7,4.5,43,0.00,,---,0.00,VWS V14.00,2013-02-16 06:28:00,
2013-02-15 23:31:00,20.1,1.2,0.00,WNW,302,0.0,0.0,43,0.00,,---,0.00,VWS V14.00,2013-02-16 06:31:00,
2013-02-15 23:33:00,20.1,1.2,0.00,NW,306,2.7,4.9,43,0.00,,---,0.00,VWS V14.00,2013-02-16 06:33:00,
2013-02-15 23:36:00,19.9,1.1,0.00,NW,307,0.0,0.0,43,0.00,,---,0.00,VWS V14.00,2013-02-16 06:36:00,
2013-02-15 23:37:00,19.9,1.1,0.00,WNW,302,3.1,3.1,43,0.00,,---,0.00,VWS V14.00,2013-02-16 06:37:00,
2013-02-15 23:39:00,19.9,1.1,0.00,WNW,300,3.1,3.1,43,0.00,,---,0.00,VWS V14.00,2013-02-16 06:39:00,
2013-02-15 23:41:00,19.9,1.1,0.00,WNW,301,0.0,0.0,43,0.00,,---,0.00,VWS V14.00,2013-02-16 06:41:00,
2013-02-15 23:42:00,19.9,1.1,0.00,WNW,300,0.0,0.0,43,0.00,,---,0.00,VWS V14.00,2013-02-16 06:42:00,
2013-02-15 23:44:00,19.8,0.9,0.00,WNW,291,0.0,0.0,43,0.00,,---,0.00,VWS V14.00,2013-02-16 06:44:00,
2013-02-15 23:46:00,19.8,0.9,0.00,WNW,282,0.0,0.0,43,0.00,,---,0.00,VWS V14.00,2013-02-16 06:46:00,
2013-02-15 23:47:00,19.8,0.9,0.00,WNW,289,0.0,0.0,43,0.00,,---,0.00,VWS V14.00,2013-02-16 06:47:00,
2013-02-15 23:49:00,19.8,0.9,0.00,West,279,0.0,0.0,43,0.00,,---,0.00,VWS V14.00,2013-02-16 06:49:00,
2013-02-15 23:51:00,19.8,0.9,0.00,WNW,291,0.0,2.2,43,0.00,,---,0.00,VWS V14.00,2013-02-16 06:51:00,
2013-02-15 23:52:00,19.8,0.9,0.00,West,263,0.0,2.7,43,0.00,,---,0.00,VWS V14.00,2013-02-16 06:52:00,
2013-02-15 23:54:00,19.8,0.9,0.00,WSW,258,0.0,0.0,43,0.00,,---,0.00,VWS V14.00,2013-02-16 06:54:00,
2013-02-15 23:56:00,19.6,0.7,0.00,SSW,213,0.0,0.0,43,0.00,,---,0.00,VWS V14.00,2013-02-16 06:56:00,
2013-02-15 23:57:00,19.6,0.7,0.00,SSE,158,3.6,3.6,43,0.00,,---,0.00,VWS V14.00,2013-02-16 06:57:00,
2013-02-15 23:59:00,19.6,0.7,0.00,SSE,148,0.0,0.0,43,0.00,,---,0.00,VWS V14.00,2013-02-16 06:59:00,